[{"header": {"dx": 0.06612293990616946, "dy": 0.0552356325346848, "nx": 98, "ny": 59, "la1": 35.046912555036876, "la2": 31.78801023549047, "lo1": -121.43107172385933, "lo2": -114.95102361305473, "refTime": "2026040902", "parameterCategory": 1, "parameterNumber": 2}, "data": [11.8, 11.8, 11.8, 11.8, 11.8, 11.8, 11.45, 11.45, 11.45, 11.45, 10.47, 8.87, 10.41, 10.0, 9.63, 10.58, 10.73, 10.73, 10.73, 10.28, 9.39, 9.39, 8.94, 8.94, 8.05, 7.11, 4.43, 0.0, -1.98, -1.98, -2.12, 0.0, 0.0, 0.0, 1.7, 3.47, 5.06, 5.06, 6.08, 6.44, 7.28, 8.18, 9.08, 9.96, 11.44, 13.16, 14.37, 14.61, 15.39, 13.49, 11.77, 11.51, 11.18, 10.73, 10.73, 10.68, 11.13, 11.57, 11.57, 11.44, 11.44, 11.44, 11.0, 11.0, 11.44, 11.44, 11.44, 12.02, 11.58, 11.58, 12.03, 11.62, 11.62, 11.18, 10.28, 9.83, 10.73, 11.62, 12.91, 12.44, 10.18, 7.08, 5.75, 4.66, 4.8, 5.2, 8.05, 4.71, -0.0, -0.0, -0.0, -0.0, 2.19, 5.4, 8.85, 10.01, 9.6, 8.72, 11.44, 11.8, 11.8, 11.8, 11.8, 11.8, 12.16, 12.16, 11.45, 11.45, 10.18, 10.12, 9.67, 9.38, 10.68, 11.02, 10.28, 11.62, 10.28, 9.83, 10.28, 10.28, 9.39, 8.94, 6.71, 6.55, 5.75, 0.0, -3.0, -3.0, -2.12, -1.98, 0.0, 0.0, 3.47, 5.06, 6.44, 6.44, 6.79, 6.32, 7.68, 9.08, 9.96, 10.58, 12.15, 13.07, 14.08, 14.13, 13.7, 11.77, 11.62, 10.84, 10.96, 10.66, 10.73, 11.18, 11.13, 11.58, 11.58, 11.58, 11.57, 11.57, 11.13, 11.57, 11.57, 11.57, 11.57, 12.02, 12.07, 12.07, 11.62, 11.62, 11.62, 11.18, 10.73, 9.83, 10.28, 11.62, 12.91, 12.44, 10.18, 7.08, 5.75, 4.66, 4.8, 5.2, 8.05, 4.71, -0.0, -0.0, -0.0, -0.0, 2.19, 5.4, 8.85, 10.01, 9.6, 8.72, 11.79, 12.16, 12.16, 11.8, 11.8, 11.8, 12.16, 11.8, 11.8, 10.81, 9.2, 7.27, 8.75, 10.16, 9.8, 10.41, 11.06, 11.02, 10.96, 10.6, 9.54, 10.18, 10.6, 9.75, 8.67, 6.88, 5.24, 0.0, -2.49, -2.66, -2.82, -3.2, -2.26, 0.0, 3.72, 6.01, 6.44, 6.98, 6.64, 6.58, 8.22, 9.32, 11.38, 12.17, 13.42, 14.22, 14.74, 14.66, 11.99, 10.73, 9.2, 9.75, 10.62, 10.73, 10.73, 11.18, 11.18, 11.62, 11.62, 11.62, 11.62, 11.62, 11.13, 11.57, 11.57, 11.57, 12.02, 12.07, 12.07, 12.07, 12.07, 12.52, 12.07, 11.18, 10.69, 10.25, 10.25, 12.92, 13.67, 13.31, 10.18, 7.97, 7.31, 5.94, 4.8, 7.01, 5.69, -0.0, -1.75, -0.0, -0.0, -0.0, 6.45, 8.22, 9.67, 9.6, 8.4, 8.4, 11.79, 11.79, 12.16, 12.16, 11.8, 11.8, 12.16, 11.8, 11.45, 10.47, 8.53, 7.25, 8.53, 8.94, 9.7, 10.46, 10.88, 11.61, 11.21, 10.84, 10.84, 9.75, 10.84, 10.4, 10.18, 8.8, 5.06, 0.0, -2.66, -2.4, -3.8, -4.0, -3.32, 0.0, 2.83, 5.21, 6.95, 7.9, 7.65, 7.69, 10.3, 12.22, 13.08, 12.96, 12.33, 13.23, 13.59, 11.06, 10.28, 9.7, 9.29, 9.83, 10.28, 10.28, 10.73, 10.73, 11.18, 11.62, 11.62, 11.62, 11.62, 11.62, 11.62, 11.57, 11.57, 11.57, 11.57, 11.59, 11.59, 12.48, 13.82, 14.75, 14.75, 12.49, 10.18, 9.7, 9.54, 12.14, 14.95, 13.01, 8.17, 5.94, 6.79, 5.81, 7.47, 8.48, -0.0, -1.67, -1.75, -0.0, -0.0, 3.68, 7.9, 10.18, 8.91, 8.18, 6.64, 4.0, 11.79, 11.79, 12.16, 12.16, 11.8, 11.8, 12.16, 11.8, 11.45, 10.15, 8.53, 7.22, 7.65, 8.59, 8.73, 9.46, 10.4, 11.09, 11.21, 9.66, 10.41, 8.93, 10.18, 10.4, 9.6, 10.0, 5.46, 0.0, -2.28, -2.33, -2.46, -2.39, -2.82, 0.0, 1.58, 4.4, 4.4, 7.54, 9.39, 9.91, 11.17, 11.16, 11.3, 10.59, 11.33, 11.71, 11.62, 11.18, 10.73, 10.28, 10.28, 10.28, 10.28, 10.28, 10.73, 11.18, 11.18, 11.62, 11.62, 11.62, 11.62, 11.62, 11.18, 11.12, 11.12, 11.57, 11.57, 11.57, 11.58, 11.91, 13.82, 15.6, 16.06, 15.2, 12.47, 8.67, 9.06, 9.42, 11.45, 11.72, 6.16, 4.8, 5.2, 6.64, 7.6, -0.0, -1.75, -4.0, -2.82, -0.0, -0.0, 7.59, 10.73, 8.94, 8.4, 5.21, 2.17, 1.75, 11.79, 11.79, 11.79, 12.16, 12.16, 11.8, 12.16, 11.45, 11.15, 10.15, 8.16, 6.42, 7.9, 8.73, 9.09, 9.09, 10.09, 10.04, 9.27, 8.85, 6.21, 5.99, 6.0, 7.19, 8.53, 8.53, 4.32, 0.0, -2.1, -2.1, -1.33, -1.16, 0.0, 1.2, 3.25, 4.24, 5.8, 8.15, 11.16, 10.41, 8.64, 7.93, 9.62, 11.2, 11.87, 12.14, 11.95, 11.53, 11.55, 11.11, 11.11, 10.66, 10.66, 10.66, 11.12, 11.57, 11.57, 11.62, 11.62, 11.62, 11.62, 11.18, 11.11, 11.12, 11.12, 11.13, 11.13, 10.68, 11.13, 11.13, 12.35, 13.7, 14.6, 15.49, 15.65, 13.8, 8.73, 7.31, 6.17, 8.91, 4.98, 6.13, 6.13, 7.21, -0.0, -6.01, -6.01, -8.22, -6.4, -9.48, 11.18, 12.52, 9.39, 6.01, -0.0, -0.0, -0.0, 1.62, 11.79, 11.79, 11.79, 12.16, 12.16, 11.8, 11.8, 11.45, 10.81, 9.8, 7.64, 6.04, 7.59, 9.1, 10.48, 9.09, 9.82, 10.19, 9.5, 8.85, 8.54, 6.95, 4.66, 3.39, 4.81, 6.6, 4.81, 0.0, -2.54, -2.95, -2.1, -1.33, 0.0, 2.39, 3.97, 4.74, 5.92, 7.34, 9.02, 7.44, 6.4, 4.81, 6.9, 9.48, 12.27, 10.99, 11.5, 11.18, 11.28, 11.71, 11.28, 10.47, 11.11, 11.11, 11.57, 11.57, 11.57, 11.57, 11.57, 12.07, 11.62, 11.18, 11.18, 10.68, 10.68, 10.68, 10.68, 10.73, 10.73, 10.68, 10.69, 11.58, 11.95, 14.18, 15.07, 15.61, 13.86, 8.49, 5.81, 9.64, 7.06, 6.01, 6.64, -9.83, -8.93, -11.28, -11.45, -13.41, -13.86, -12.96, 0.0, 8.53, 8.05, -0.0, -1.75, -0.0, -0.0, 1.54, 11.42, 11.79, 11.79, 11.79, 12.16, 12.16, 11.8, 11.45, 10.81, 9.48, 6.41, 4.78, 6.58, 9.09, 10.87, 8.94, 10.24, 10.79, 10.37, 10.18, 10.91, 11.37, 10.73, 9.39, 7.38, 6.8, 5.81, 0.0, -3.58, -4.98, -1.98, -1.71, 0.0, 3.44, 4.62, 4.81, 4.99, 5.75, 6.45, 5.98, 4.81, 5.15, 6.34, 6.69, 7.2, 8.58, 9.08, 10.0, 10.68, 11.09, 10.05, 10.84, 11.35, 11.35, 11.4, 11.57, 11.57, 11.57, 11.58, 11.58, 11.62, 10.73, 10.73, 10.73, 10.73, 10.73, 10.73, 10.28, 10.28, 10.73, 10.73, 10.69, 11.15, 12.04, 13.38, 12.49, 12.48, 12.0, 12.52, 14.03, 11.06, -8.53, -9.83, -10.41, -12.07, -12.96, -12.52, -12.3, -9.17, -5.4, 0.0, 6.26, -0.0, -0.0, -1.4, -0.0, -0.0, -0.0, 11.42, 11.79, 11.79, 11.79, 12.16, 12.16, 11.8, 11.45, 10.48, 8.76, 6.24, 4.81, 5.11, 7.43, 8.32, 8.24, 9.17, 10.09, 10.18, 10.3, 10.73, 12.72, 12.87, 13.07, 10.37, 7.9, 6.95, 4.38, 0.0, -2.35, 0.0, 0.0, 0.0, 1.38, 3.68, 4.47, 5.0, 4.8, 5.21, 3.25, 4.1, 6.6, 7.59, 5.6, 3.68, 2.71, 3.82, 7.9, 8.55, 9.32, 10.68, 10.05, 10.88, 11.03, 11.4, 11.4, 11.4, 11.0, 11.46, 11.59, 11.14, 10.68, 10.24, 10.28, 10.28, 10.28, 10.73, 10.73, 10.73, 10.73, 11.18, 10.73, 11.62, 12.07, 12.07, 11.62, 10.28, 10.28, 12.96, 15.11, 15.36, -14.3, -9.54, -8.49, -9.83, -9.97, -9.6, -7.9, -5.95, -6.95, -0.0, 1.14, 1.1, 1.14, -0.0, -0.0, -0.0, -0.0, 11.18, 11.42, 11.79, 11.79, 12.16, 12.16, 11.8, 11.45, 10.48, 8.76, 6.94, 6.43, 6.21, 6.51, 6.57, 6.36, 7.5, 7.73, 7.16, 6.0, 5.8, 7.54, 9.8, 10.86, 10.86, 8.22, 6.63, 7.59, 3.58, 0.0, 1.83, 1.83, 0.0, 0.0, 0.0, 1.39, 3.32, 2.4, 8.05, 8.94, 0.0, 2.54, 4.15, 4.2, 4.71, 4.71, 3.8, 4.6, 8.94, 8.43, 8.8, 9.45, 10.05, 10.6, 11.13, 11.13, 11.44, 11.28, 11.28, 11.33, 11.02, 10.12, 10.22, 8.45, 9.39, 10.28, 11.13, 11.14, 11.57, 11.62, 12.07, 11.62, 12.05, 12.5, 12.5, 11.6, 10.62, 9.7, 11.0, 13.59, 15.78, 16.54, -11.16, -7.21, -6.71, -5.06, -4.83, -5.1, -7.2, -1.84, -0.0, -0.0, 0.95, 2.4, 1.4, -0.0, -1.75, -0.0, 11.18, 11.42, 11.79, 12.16, 12.39, 12.16, 11.8, 11.45, 10.48, 9.06, 7.38, 8.05, 8.66, 7.99, 7.93, 6.73, 8.05, 6.73, 6.16, 5.81, 6.32, 6.64, 7.4, 7.74, 7.92, 7.78, 6.69, 6.58, 4.81, 2.28, 2.54, 4.81, 2.93, 0.0, 0.0, 0.0, 0.0, 9.39, 5.06, 5.06, 7.15, 2.39, 2.02, 3.65, 4.83, 4.71, 4.71, 6.01, 6.01, 6.32, 8.05, 8.4, 9.04, 9.63, 10.18, 10.7, 11.13, 11.34, 11.45, 11.03, 10.78, 9.64, 8.0, 9.39, 9.77, 10.47, 10.21, 11.03, 11.45, 11.98, 12.52, 11.91, 12.24, 12.53, 12.58, 12.14, 10.8, 9.75, 9.42, 11.87, 13.96, 15.53, 12.65, -0.0, -8.94, -2.26, -3.8, -6.01, -1.98, -0.0, -0.0, -0.0, 1.1, 2.12, 2.54, -0.0, -0.0, -1.67, 11.18, 11.18, 11.79, 12.16, 12.39, 12.39, 12.16, 11.8, 10.48, 8.66, 8.18, 8.56, 9.66, 9.78, 9.8, 8.85, 8.52, 8.01, 7.2, 7.11, 6.24, 6.0, 5.6, 7.43, 6.9, 7.96, 7.68, 5.06, 5.06, 3.0, 2.69, 5.58, 6.71, 4.43, -4.8, 10.28, 10.28, 5.37, 5.37, 7.63, 6.32, 6.8, 0.0, 2.58, 4.0, 2.99, 4.71, 4.71, 6.01, 6.32, 6.79, 7.67, 8.22, 8.22, 8.79, 8.67, 10.04, 11.84, 11.76, 9.55, 7.95, 8.49, 9.39, 9.13, 8.55, 8.15, 7.14, 7.41, 7.9, 9.2, 10.04, 10.73, 10.41, 10.99, 10.8, 10.55, 10.0, 9.36, 9.77, 11.2, 12.79, 11.45, 9.5, 11.33, 9.6, 9.39, 8.67, 8.4, 1.47, -0.0, -0.0, -0.0, 1.18, 2.12, 3.2, 2.82, -0.0, -0.0, 11.18, 11.18, 11.79, 12.16, 12.16, 12.39, 12.39, 11.44, 10.86, 9.4, 8.95, 9.31, 9.66, 10.4, 11.73, 12.0, 11.69, 10.47, 8.79, 7.93, 7.73, 8.15, 9.1, 9.92, 9.76, 9.27, 9.34, 8.22, 8.6, 6.61, 6.64, 6.26, 6.26, 5.2, -2.8, -2.8, -0.0, 3.4, 5.37, 7.21, 7.37, 7.15, 1.84, 1.11, 1.67, 1.58, 1.95, 2.06, 3.8, 4.71, 3.91, 5.69, 6.52, 5.95, 8.48, 9.39, 8.05, 10.28, 11.46, 4.74, 9.39, -0.0, 5.21, 4.83, 3.87, 3.39, 3.97, 4.99, 5.75, 7.72, 8.02, 8.6, 8.94, 7.2, 7.41, 9.04, 9.97, 9.1, 10.0, 10.32, 9.26, 8.05, 9.48, 11.99, 10.61, 11.72, 10.41, 8.15, 5.06, 1.4, -0.0, -0.0, 1.25, 2.12, 3.45, 3.45, 2.66, -0.0, 11.18, 11.18, 11.42, 11.79, 12.16, 11.79, 11.79, 11.79, 10.86, 9.7, 9.7, 9.73, 10.07, 10.4, 11.72, 12.63, 13.18, 12.85, 12.16, 11.25, 11.64, 12.27, 12.86, 14.33, 14.75, 15.08, 14.0, 14.15, 13.35, 12.5, 11.12, 9.72, 7.97, 6.26, -0.0, -2.8, -0.0, 2.26, 5.06, 7.6, 7.6, 6.79, 5.7, 1.39, 1.09, 2.13, 1.75, 1.93, 2.1, 4.8, 5.46, 7.59, 9.48, 12.39, 12.52, 11.62, 9.39, 8.05, 10.73, -6.8, -5.9, -0.0, 2.02, 3.65, 2.58, 2.39, 2.13, 3.25, 5.32, 6.48, 7.97, 8.02, 9.96, 6.95, 5.46, 7.9, 9.6, 8.48, 9.39, 9.64, 9.04, 8.4, 10.79, 12.94, 10.94, 12.45, 12.42, 9.45, 5.37, 1.25, -0.0, -0.0, 1.18, 2.66, 3.0, 3.45, 3.45, 2.49, 11.18, 11.18, 11.18, 11.79, 11.79, 11.79, 11.79, 11.79, 10.86, 10.12, 10.12, 10.43, 10.78, 11.09, 11.72, 12.65, 13.16, 13.76, 13.28, 12.78, 12.76, 13.1, 14.3, 15.1, 15.19, 15.96, 15.57, 15.29, 14.99, 14.64, 13.75, 12.3, 10.7, 7.06, 7.15, 3.4, 2.54, 2.4, 7.07, 7.15, 7.21, 7.6, 7.59, 1.76, 1.11, 1.05, 1.18, 2.82, 4.83, 8.18, 8.55, 9.2, 9.83, 5.69, -0.0, 7.6, 5.37, 6.79, 7.47, 4.0, -0.0, -0.0, 2.17, 4.0, 5.21, 5.46, 6.95, 6.95, 6.95, 7.51, 6.11, 7.27, -0.0, -9.6, 10.28, 6.95, 8.55, 8.82, 9.2, 9.63, 9.33, 9.33, 9.21, 10.52, 10.22, 12.22, 13.09, 10.75, 6.01, 1.58, 1.32, 1.25, 1.4, 2.4, 3.2, 4.47, 4.19, 4.19, 11.18, 11.18, 11.18, 11.79, 11.79, 11.79, 11.79, 11.79, 11.25, 10.51, 10.43, 10.43, 10.78, 11.09, 11.73, 12.31, 13.16, 13.74, 13.82, 13.55, 13.28, 13.61, 13.93, 14.79, 15.2, 15.62, 15.88, 15.61, 15.34, 15.01, 15.09, 14.65, 12.4, 10.96, 7.15, 6.79, 2.4, 3.4, 7.2, 8.05, 6.94, 6.4, 6.44, 3.6, 0.0, 0.0, 8.49, 8.05, 8.05, 8.05, 8.05, 7.6, 6.7, 5.69, 5.37, 7.15, 7.21, 6.79, 8.67, 8.4, 4.96, 4.2, 4.37, 5.69, 6.32, 7.81, 7.37, 8.91, 8.18, 6.64, 6.52, 9.83, -12.52, -10.4, 2.71, 5.75, 8.53, 9.53, 9.97, 9.38, 9.2, 8.99, 8.37, 8.17, 7.97, 8.05, 10.28, 9.7, 6.79, 2.99, 1.4, 1.4, 2.4, 3.4, 4.46, 4.19, 3.91, 3.91, 11.18, 11.18, 11.54, 11.18, 11.42, 11.79, 11.79, 11.9, 11.25, 10.86, 10.81, 10.78, 11.11, 11.09, 11.73, 12.28, 12.22, 13.16, 13.74, 14.04, 13.76, 13.49, 13.8, 14.53, 15.12, 15.4, 15.65, 15.8, 15.91, 15.92, 15.99, 15.99, 15.1, 13.25, 6.88, 6.71, 6.4, 6.79, 7.15, 7.45, 5.72, 5.36, 6.79, 5.69, 0.0, -6.32, -2.83, -0.0, 3.8, 6.01, 7.44, 7.44, 7.44, 7.44, 8.0, 8.67, 8.94, 9.39, 9.29, 8.55, 7.27, 6.64, 6.63, 6.9, 7.47, 6.71, 7.6, 8.05, 8.0, 8.06, 8.49, 9.3, 12.96, 8.22, 8.22, 7.24, 8.85, 9.96, 10.29, 9.81, 9.05, 8.43, 7.82, 7.2, 7.81, 7.63, 8.49, 6.01, 3.8, 3.15, 3.32, 2.99, 2.82, 3.6, 4.6, 4.47, 3.91, 3.91, 11.18, 11.18, 11.54, 11.54, 11.42, 11.42, 11.79, 11.54, 11.6, 11.6, 11.2, 11.49, 11.44, 11.09, 11.4, 12.0, 12.52, 13.1, 13.67, 13.67, 13.58, 13.68, 13.58, 14.11, 15.26, 15.87, 16.33, 16.43, 16.44, 16.82, 17.26, 17.26, 16.82, 14.93, 10.81, 7.35, 6.0, 5.21, 6.0, 5.72, 6.08, 5.69, 6.7, 7.6, -0.0, -0.0, -0.0, 4.0, 6.32, 7.81, 6.64, 6.64, 6.64, 8.4, 8.0, 9.21, 9.26, 8.91, 8.18, 7.56, 7.56, 7.21, 7.44, 7.6, 8.38, 7.15, 6.26, 7.21, 6.95, 7.9, 11.21, 11.28, 11.98, 11.44, 10.01, 8.85, 10.23, 11.04, 11.26, 10.63, 9.81, 9.36, 8.0, 8.79, 8.91, 7.6, 7.67, 5.1, 4.37, 4.6, 4.83, 3.15, 2.82, 4.6, 4.6, 4.75, 4.74, 4.74, 11.18, 11.18, 11.18, 11.54, 11.42, 11.42, 11.79, 11.54, 11.9, 11.6, 11.2, 11.87, 11.77, 12.08, 11.09, 12.9, 11.58, 12.45, 13.02, 13.2, 13.74, 14.27, 13.42, 14.79, 14.31, 15.81, 13.48, 16.43, 16.7, 15.07, 16.01, 16.91, 16.91, 16.48, 14.64, 9.71, 6.15, 5.01, 6.06, 5.93, 5.59, 6.8, 8.05, 8.05, 3.8, 4.0, 4.0, 6.64, 6.64, 7.81, 6.64, 7.51, 7.51, 8.0, 7.15, 8.05, 8.05, 7.33, 8.18, 8.18, 8.18, 8.4, 8.0, 7.21, 8.05, 7.6, 7.15, 6.64, 7.44, 9.2, 11.02, 12.03, 13.15, 13.28, 12.63, 12.51, 12.45, 12.47, 12.39, 11.95, 9.68, 9.79, 9.76, 9.54, 9.33, 8.91, 8.03, 6.98, 6.7, 5.06, 4.6, 4.6, 4.37, 4.6, 4.37, 4.75, 4.75, 4.75, 11.18, 11.18, 11.18, 11.18, 11.18, 11.42, 11.79, 11.54, 11.9, 11.6, 11.6, 11.87, 12.14, 12.08, 11.73, 11.68, 11.28, 11.28, 11.94, 12.5, 15.01, 13.75, 13.1, 13.71, 13.01, 13.34, 14.03, 13.2, 13.48, 14.51, 15.23, 15.73, 16.35, 16.17, 15.69, 12.11, 7.35, 5.49, 6.1, 6.79, 7.5, 8.49, 7.95, 6.47, 4.8, 7.2, 7.07, 7.44, 8.91, 7.81, 7.81, 8.0, 7.15, 7.15, 6.44, 6.01, 7.68, 6.63, 6.98, 8.8, 8.4, 8.48, 8.38, 8.49, 7.6, 7.15, 7.01, 7.01, 7.94, 8.94, 10.08, 11.68, 15.71, 18.16, 15.11, 14.27, 12.72, 11.39, 11.76, 11.14, 10.28, 8.94, 8.94, 9.39, 8.82, 7.6, 5.31, 4.71, 6.98, 4.6, 4.6, 5.59, 6.14, 4.6, 5.59, 5.59, 5.69, 5.69, 10.9, 11.18, 11.18, 11.18, 11.18, 11.42, 11.42, 11.79, 11.9, 12.26, 11.9, 11.87, 12.52, 12.43, 12.08, 12.02, 11.28, 11.03, 9.17, 10.75, 13.26, 13.16, 12.56, 11.96, 12.63, 13.2, 12.45, 12.56, 13.48, 14.29, 14.43, 15.19, 15.42, 15.64, 15.64, 12.62, 6.95, 4.93, 5.81, 7.51, 8.49, 9.32, 9.68, 8.67, 6.79, 7.2, 7.89, 8.67, 8.67, 8.67, 7.6, 7.6, 5.69, 5.1, 5.1, 5.69, 5.31, 5.44, 7.68, 8.3, 8.3, 8.33, 8.49, 8.49, 7.6, 7.15, 7.15, 7.6, 7.47, 7.44, 8.75, 10.73, 14.39, 16.15, 15.62, 13.65, 10.9, 10.3, 10.12, 10.17, 9.92, 8.9, 8.94, 8.41, 8.48, 6.63, 5.59, 4.71, 4.71, 5.31, 5.59, 6.14, 6.42, 5.31, 5.31, 6.01, 5.69, 5.69, 10.9, 11.18, 11.18, 11.18, 11.18, 11.42, 11.42, 11.79, 11.9, 12.26, 12.26, 11.87, 12.16, 12.78, 12.43, 12.6, 12.16, 11.28, 11.03, 12.02, 12.94, 12.86, 11.68, 11.38, 12.3, 13.79, 14.23, 14.03, 13.36, 13.36, 13.62, 13.76, 13.99, 14.73, 14.73, 10.91, 5.47, 4.09, 5.51, 6.16, 7.15, 8.03, 8.86, 8.21, 6.6, 4.65, 7.89, 8.33, 8.49, 7.81, 7.37, 5.69, 3.6, 3.6, 4.83, 4.14, 3.6, 4.74, 6.01, 7.67, 7.81, 8.33, 8.49, 8.49, 8.05, 7.6, 7.6, 6.8, 2.82, 3.49, 3.25, 6.63, 11.09, 15.38, 6.87, 8.51, 9.73, 9.66, 8.59, 8.22, 8.82, 8.14, 9.39, 9.29, 8.05, 6.32, 4.6, 4.83, 4.96, 5.86, 6.98, 6.42, 6.42, 5.31, 6.01, 5.37, 5.93, 5.93, 10.9, 10.9, 11.18, 11.18, 11.18, 11.42, 11.79, 11.79, 11.9, 12.26, 11.87, 11.87, 12.52, 12.78, 12.43, 12.91, 12.24, 11.58, 11.63, 12.6, 13.74, 13.01, 11.87, 10.75, 11.38, 13.44, 14.79, 14.95, 14.67, 13.99, 13.48, 13.31, 13.53, 14.03, 13.53, 9.01, 4.8, 4.4, 4.73, 5.77, 6.26, 6.23, 7.06, 6.79, 5.37, 4.37, 7.63, 8.05, 7.6, 7.15, 6.32, 4.22, 3.4, 3.4, 3.4, 2.82, 2.66, 3.6, 5.59, 5.84, 7.2, 8.49, 8.49, 8.49, 7.94, 7.6, 5.58, 1.63, 1.58, -0.0, -0.0, 3.25, 13.63, 8.49, 4.11, 0.0, 5.31, 7.98, 9.39, 8.66, 7.68, 7.2, 8.67, 9.39, 8.05, 6.64, 4.83, 4.83, 5.29, 7.26, 7.82, 6.98, 7.27, 6.28, 6.63, 5.93, 5.59, 5.59, 10.9, 10.9, 10.9, 11.18, 11.18, 11.18, 11.42, 11.79, 11.9, 12.26, 12.26, 12.52, 12.52, 12.78, 12.78, 12.68, 12.91, 11.88, 12.28, 12.57, 13.58, 14.4, 13.3, 11.58, 11.03, 12.16, 13.66, 14.68, 15.21, 15.07, 14.39, 14.44, 13.62, 13.81, 12.91, 9.51, 5.81, 5.64, 5.32, 5.77, 6.26, 6.26, 6.58, 5.99, 5.08, 4.55, 8.41, 8.49, 7.6, 7.37, 5.69, 3.4, 3.4, 3.4, 3.2, 3.2, 1.63, 3.2, 6.01, 6.28, 6.16, 7.15, 7.15, 7.15, 6.71, 4.11, 1.58, 2.46, 2.83, 2.06, 3.6, 9.96, 11.59, 11.51, 11.03, 9.2, 8.48, 12.52, 12.27, 10.86, 8.85, 7.4, 7.6, 8.05, 7.15, 4.6, 3.49, 3.49, 4.83, 4.83, 6.64, 6.01, 6.63, 5.93, 5.93, 5.93, 5.59, 5.59, 10.9, 10.9, 10.9, 11.18, 11.18, 11.18, 11.42, 11.79, 11.9, 12.26, 12.26, 12.16, 12.52, 12.78, 13.02, 12.68, 12.91, 12.54, 12.24, 13.18, 13.3, 14.4, 14.23, 13.46, 12.28, 11.23, 12.93, 14.03, 14.57, 14.82, 15.07, 15.14, 14.53, 14.72, 13.99, 11.21, 8.3, 6.72, 6.58, 6.23, 6.67, 6.71, 7.12, 6.58, 5.72, 5.57, 6.23, 6.23, 6.14, 5.94, 4.93, 6.08, 5.06, 5.06, 3.4, 3.97, 3.97, 4.43, 7.21, 7.89, 7.63, 6.64, 6.71, 6.26, 4.84, 1.58, -0.0, 1.16, 2.46, 5.69, 8.49, 9.21, 12.52, 12.74, 13.07, 12.79, 11.85, 10.68, 8.94, 10.8, 9.48, 9.42, 9.7, 10.28, 4.83, 2.99, 3.15, 3.32, 3.32, 4.0, 4.0, 5.31, 5.69, 6.08, 6.13, 6.13, 6.4, 6.4, 10.9, 10.9, 10.9, 11.18, 11.18, 11.18, 11.18, 11.79, 12.16, 11.9, 12.26, 12.16, 12.52, 12.78, 13.02, 12.68, 12.91, 12.91, 12.91, 13.12, 13.02, 13.48, 14.23, 14.04, 13.46, 12.87, 12.65, 13.2, 13.9, 14.82, 15.07, 15.19, 15.02, 15.23, 14.72, 12.91, 10.71, 8.72, 7.69, 7.5, 7.57, 7.6, 7.6, 7.57, 7.04, 6.47, 6.61, 7.06, 6.51, 6.04, 5.4, 4.8, 6.0, 5.06, 5.37, 5.37, 5.95, 6.79, 7.15, 8.05, 8.33, 8.85, 7.52, 6.94, 3.72, -0.0, -0.0, 1.54, 3.15, 5.69, 8.05, 9.83, 9.83, 11.84, 12.04, 11.88, 12.33, 12.4, 7.92, 8.48, 9.17, 10.12, 11.99, 10.18, 3.2, 2.99, 3.15, 2.69, 2.83, 3.8, 4.6, 5.44, 6.63, 6.13, 6.13, 6.13, 6.4, 6.4, 10.9, 10.9, 10.9, 10.9, 11.18, 11.18, 11.18, 11.42, 11.79, 12.16, 12.52, 12.52, 12.52, 12.42, 13.02, 12.68, 12.91, 12.91, 12.91, 13.12, 13.3, 13.2, 13.75, 13.85, 13.38, 13.46, 13.1, 13.2, 13.36, 13.9, 14.43, 14.15, 14.67, 14.91, 14.91, 14.32, 13.53, 11.41, 10.0, 8.96, 9.23, 8.87, 8.49, 8.02, 7.5, 7.51, 7.43, 7.97, 7.07, 6.61, 5.7, 5.09, 4.3, 4.22, 5.58, 5.95, 7.37, 7.15, 6.58, 6.58, 8.49, 8.0, 9.39, 6.94, 1.75, -0.0, 1.84, 4.96, 7.07, 8.24, 8.49, 8.94, 9.83, 10.23, 10.5, 10.04, 11.99, 11.3, 8.63, 7.6, 3.39, 6.4, 14.3, 7.59, 3.97, 4.29, 4.14, 2.69, 2.69, 4.37, 5.31, 6.63, 6.28, 7.28, 6.8, 7.21, 6.79, 6.79, 10.9, 10.9, 10.9, 10.9, 11.18, 11.18, 11.18, 11.42, 11.79, 11.79, 12.16, 12.52, 12.16, 12.42, 12.42, 12.65, 12.91, 12.91, 12.91, 13.12, 13.3, 13.47, 13.47, 13.2, 13.3, 13.01, 13.01, 13.3, 13.85, 13.75, 14.15, 14.15, 14.15, 14.39, 14.39, 14.22, 13.53, 11.92, 10.42, 9.43, 9.14, 9.32, 8.92, 8.49, 8.47, 8.42, 8.42, 7.97, 7.58, 7.06, 6.23, 5.33, 4.87, 4.82, 4.92, 6.26, 7.15, 7.15, 6.36, 6.0, 7.15, 8.05, 8.05, 6.32, 1.47, 1.69, 5.36, 7.44, 8.94, 8.94, 8.94, 9.39, 9.29, 9.29, 9.83, 10.28, 11.18, 10.26, 8.63, 7.5, 8.05, 13.41, 13.59, 9.67, 8.0, 7.06, 5.06, 4.14, 4.37, 5.69, 6.28, 7.6, 7.2, 7.2, 7.63, 7.63, 7.5, 7.5, 10.9, 10.9, 10.9, 10.9, 11.18, 11.18, 11.18, 11.54, 11.79, 11.79, 12.16, 12.52, 12.52, 12.78, 12.78, 12.65, 12.54, 12.54, 12.74, 12.74, 13.3, 13.47, 13.47, 13.47, 13.2, 13.02, 12.93, 13.01, 13.48, 13.85, 13.9, 14.15, 13.76, 13.99, 13.59, 13.71, 12.62, 11.41, 9.92, 9.39, 9.11, 9.23, 8.42, 8.9, 8.49, 7.87, 8.77, 8.05, 7.6, 6.68, 5.78, 5.36, 4.92, 4.92, 4.92, 4.47, 6.71, 7.15, 4.43, 4.74, 7.15, 7.94, 7.45, 3.8, -0.0, 2.97, 5.21, 6.32, 8.49, 8.48, 8.67, 9.29, 9.32, 8.79, 9.38, 9.43, 10.17, 10.58, 9.39, 8.9, 6.64, 12.01, 14.4, 13.37, 9.03, 6.13, 5.43, 6.52, 6.9, 6.52, 7.63, 7.21, 7.52, 7.21, 7.5, 7.94, 7.97, 7.97, 10.9, 10.9, 10.9, 10.9, 10.9, 11.18, 11.18, 11.54, 11.79, 11.79, 11.79, 12.52, 12.52, 12.78, 13.15, 13.02, 12.85, 12.54, 12.54, 12.74, 13.12, 13.58, 13.47, 13.62, 13.47, 13.2, 12.65, 12.73, 13.3, 13.48, 13.9, 14.15, 13.62, 13.48, 13.31, 12.79, 12.11, 10.71, 9.42, 9.39, 9.5, 9.21, 8.77, 7.84, 7.13, 8.49, 9.83, 7.15, 5.36, 4.92, -0.0, -3.48, 4.92, 4.92, 4.92, 4.92, 4.47, 3.72, 2.8, 6.26, 6.36, 7.06, 7.6, 2.06, 2.06, 2.06, 3.15, 3.65, 4.56, 7.6, 7.2, 7.89, 8.94, 10.73, 11.76, 11.69, 10.04, 10.2, 11.0, 10.28, 9.83, 9.83, 12.94, 14.03, 12.3, 7.73, 7.73, 7.56, 6.55, 6.94, 7.42, 8.0, 8.44, 8.05, 8.49, 8.49, 8.49, 8.49, 10.55, 10.55, 10.9, 10.9, 10.9, 11.18, 11.18, 11.54, 11.79, 12.16, 12.16, 11.79, 12.52, 12.42, 12.78, 13.02, 13.23, 13.23, 12.91, 13.12, 13.12, 13.58, 13.74, 13.47, 13.62, 13.47, 12.65, 12.27, 12.82, 13.36, 13.75, 13.62, 13.62, 13.48, 13.31, 12.79, 11.82, 10.21, 9.42, 9.75, 9.5, 9.5, 9.07, 8.3, 7.37, 8.3, 9.33, 6.6, 4.47, -0.0, -0.0, -1.8, -2.0, -0.0, 4.92, 4.92, 5.36, 3.79, 2.4, 5.81, 6.0, 7.6, 6.01, 4.71, 4.71, 5.69, 3.4, 2.69, 5.69, 6.94, 6.26, 6.79, 7.67, 10.08, 13.38, 14.61, 12.74, 9.81, 10.0, 11.49, 11.15, 10.73, 11.1, 13.01, 12.65, 10.91, 11.39, 9.89, 8.24, 6.58, 7.56, 7.57, 7.6, 7.6, 8.94, 8.94, 8.94, 8.94, 10.55, 10.55, 10.55, 10.9, 10.9, 11.18, 11.18, 11.54, 11.54, 12.16, 12.16, 12.16, 12.16, 12.78, 12.78, 13.02, 13.02, 13.61, 13.61, 13.8, 13.49, 13.97, 13.58, 13.47, 13.62, 13.47, 13.09, 11.72, 13.26, 12.16, 13.36, 13.75, 13.62, 13.23, 13.08, 12.79, 11.6, 10.62, 9.51, 9.63, 9.33, 9.5, 9.07, 8.64, 8.42, 8.51, 9.7, 8.33, 6.26, 5.81, 5.36, 4.92, 4.4, 3.48, 3.48, 3.16, 4.8, 3.79, 2.4, 5.2, 6.26, 6.32, 6.01, 6.7, 7.07, 7.81, 7.6, 8.05, 8.05, 8.49, 7.45, 6.01, 7.27, 10.75, 13.67, 15.2, 13.35, 9.86, 8.54, 10.12, 11.18, 11.96, 11.8, 11.03, 12.42, 12.94, 12.98, 12.94, 10.02, 8.38, 8.05, 8.49, 7.6, 7.15, 8.49, 8.94, 8.49, 8.49, 10.55, 10.55, 10.55, 10.9, 10.9, 11.18, 11.18, 11.54, 11.54, 12.16, 12.16, 12.16, 12.16, 12.16, 12.78, 13.02, 13.02, 13.23, 13.23, 13.8, 13.8, 13.8, 13.97, 13.47, 13.09, 13.09, 13.09, 11.99, 11.23, 12.89, 11.9, 13.2, 13.36, 13.36, 13.23, 12.56, 11.75, 10.91, 9.71, 9.63, 9.81, 9.5, 9.5, 9.07, 8.96, 9.39, 9.43, 9.24, 9.37, 8.92, 7.58, 6.68, 6.26, 5.81, 5.26, 4.38, 4.0, 3.48, 3.79, 3.48, 3.79, 5.95, 7.07, 7.21, 7.63, 7.81, 7.6, 7.37, 8.24, 8.94, 8.3, 7.51, 8.0, 10.28, 13.86, 16.54, 12.94, 10.58, 10.28, 11.62, 11.95, 12.74, 13.01, 13.05, 12.75, 13.21, 13.67, 13.21, 11.52, 8.01, 8.49, 8.94, 8.49, 7.15, 6.71, 8.49, 7.94, 7.94, 10.24, 10.24, 10.55, 10.55, 10.9, 10.9, 11.18, 11.54, 11.54, 12.16, 12.16, 12.52, 12.16, 12.16, 12.42, 13.02, 13.02, 13.02, 13.23, 13.61, 13.8, 14.18, 13.97, 13.68, 13.09, 13.09, 13.09, 12.54, 12.09, 11.72, 12.27, 12.27, 12.27, 12.45, 12.7, 12.16, 11.36, 10.4, 9.71, 9.7, 9.81, 9.39, 9.54, 9.54, 9.43, 9.43, 9.57, 9.57, 9.68, 9.68, 9.32, 8.42, 7.06, 5.81, 5.36, 4.88, 4.43, 3.74, 3.16, 2.23, 5.06, 5.37, 6.8, 7.63, 7.15, 7.6, 7.6, 7.15, 8.49, 8.94, 7.89, 8.8, 9.54, 10.08, 13.44, 16.07, 14.67, 13.07, 11.87, 12.68, 13.83, 14.28, 14.3, 13.86, 13.86, 12.95, 13.4, 13.4, 11.15, 8.94, 7.15, 9.39, 8.94, 7.6, 7.08, 8.05, 8.05, 8.05, 10.24, 10.24, 10.55, 10.55, 10.9, 10.9, 11.18, 11.54, 11.9, 12.16, 12.52, 12.52, 12.52, 12.16, 12.16, 12.42, 12.65, 12.65, 12.85, 13.23, 13.8, 13.8, 13.97, 13.97, 13.47, 13.09, 13.09, 12.54, 12.27, 12.37, 12.37, 12.27, 11.9, 11.62, 11.62, 10.96, 10.55, 9.48, 9.71, 9.51, 9.7, 9.86, 9.81, 9.97, 9.54, 9.57, 10.01, 10.01, 10.01, 10.01, 9.57, 9.23, 8.3, 7.06, 6.26, 5.81, 4.92, 4.44, 4.24, 3.16, 2.48, 3.4, 6.8, 6.8, 8.05, 8.05, 7.15, 7.6, 8.05, 8.49, 7.89, 9.54, 10.28, 11.14, 13.59, 13.86, 14.4, 14.05, 14.42, 14.57, 14.3, 14.22, 13.32, 12.86, 12.94, 13.86, 14.75, 12.96, 10.73, 7.6, 7.55, 7.56, 9.36, 7.57, 6.45, 7.52, 8.49, 8.49, 10.24, 10.24, 10.55, 10.91, 10.9, 10.9, 11.54, 11.54, 11.9, 12.16, 12.52, 12.52, 12.52, 12.16, 12.16, 12.76, 12.65, 12.65, 12.85, 13.23, 13.23, 13.8, 13.8, 13.97, 13.3, 13.09, 13.09, 12.7, 12.27, 12.56, 12.56, 12.82, 12.16, 11.24, 10.58, 9.38, 9.58, 9.47, 9.72, 9.42, 9.63, 9.63, 9.81, 9.97, 9.97, 10.01, 10.01, 10.04, 9.91, 9.91, 9.86, 9.54, 8.21, 7.51, 7.12, 6.71, 5.81, 5.36, 4.43, 3.72, 3.48, 3.48, 8.05, 7.15, 7.6, 8.49, 7.37, 8.24, 8.49, 8.49, 8.94, 8.05, 10.58, 11.59, 12.52, 12.52, 12.83, 13.44, 14.87, 16.03, 15.65, 12.87, 11.49, 10.96, 11.12, 11.13, 11.13, 9.33, 6.22, 7.11, 7.42, 7.55, 8.49, 8.36, 7.28, 5.64, 8.49, 8.49, 9.9, 9.9, 10.63, 10.91, 11.28, 10.9, 11.54, 11.54, 11.9, 11.9, 12.52, 12.52, 12.52, 12.52, 12.16, 12.39, 12.65, 12.65, 12.65, 13.23, 13.23, 13.42, 13.8, 13.8, 13.58, 13.09, 13.09, 12.7, 12.54, 12.65, 12.82, 12.82, 12.54, 11.62, 10.68, 9.86, 9.7, 9.84, 9.45, 9.86, 9.55, 9.33, 9.03, 10.84, 9.21, 9.57, 9.91, 10.34, 10.34, 10.18, 10.18, 9.39, 8.0, 7.37, 7.48, 7.12, 6.23, 5.81, 4.38, 4.66, 4.4, 4.66, 7.6, 7.15, 7.6, 8.94, 7.6, 8.05, 8.49, 8.05, 8.05, 8.05, 10.08, 11.87, 12.74, 12.52, 11.4, 12.37, 15.55, 16.03, 15.2, 12.07, 11.18, 10.28, 9.83, 9.76, 9.77, 7.1, 7.98, 7.54, 7.54, 7.15, 7.15, 9.26, 8.8, 7.01, 7.1, 8.05, 9.9, 9.9, 10.63, 10.91, 11.28, 11.28, 11.25, 11.54, 11.9, 11.9, 12.52, 12.52, 12.52, 12.52, 12.52, 12.39, 12.39, 12.65, 12.65, 13.23, 13.23, 13.23, 13.42, 13.8, 13.58, 12.92, 12.7, 12.7, 12.16, 12.54, 12.82, 12.45, 12.54, 12.16, 10.96, 9.86, 9.4, 9.52, 9.65, 9.6, 9.6, 9.08, 8.48, 10.28, 8.86, 10.14, 10.81, 10.49, 10.42, 10.42, 10.0, 9.01, 7.81, 7.01, 7.28, 6.98, 6.66, 5.81, 4.47, 4.77, 4.66, 4.92, 7.6, 6.71, 7.15, 8.49, 8.49, 7.6, 8.05, 8.05, 7.6, 8.49, 9.39, 11.0, 13.78, 13.01, 11.62, 10.99, 14.16, 15.84, 13.25, 12.07, 11.18, 10.28, 9.39, 9.39, 9.39, 9.39, 10.73, 10.28, 8.49, 7.11, 6.67, 9.36, 9.36, 8.01, 6.22, 7.1, 9.9, 9.9, 10.28, 10.91, 11.28, 11.28, 11.25, 11.54, 11.9, 11.9, 12.52, 12.52, 12.52, 12.52, 12.52, 12.39, 12.39, 12.05, 12.65, 12.65, 13.23, 13.23, 13.42, 13.42, 13.42, 13.2, 12.54, 12.7, 12.56, 12.16, 12.54, 12.27, 12.54, 12.16, 10.96, 9.76, 9.3, 9.7, 9.84, 9.74, 9.9, 9.36, 8.4, 7.42, 9.96, 10.29, 11.39, 10.91, 10.4, 10.4, 10.4, 9.2, 7.6, 6.92, 7.06, 6.79, 6.55, 5.36, 4.92, 4.92, 4.92, 4.92, 5.2, 7.21, 7.21, 7.81, 7.37, 7.37, 7.81, 8.05, 8.05, 8.05, 9.39, 10.28, 12.42, 12.86, 12.29, 11.18, 10.99, 11.58, 11.21, 9.64, 9.39, 9.83, 9.83, 10.23, 10.56, 11.4, 11.35, 11.44, 10.08, 8.01, 7.57, 9.39, 8.94, 8.05, 6.26, 6.22, 9.9, 9.9, 10.28, 10.63, 10.91, 11.28, 11.28, 11.54, 11.54, 11.9, 11.9, 12.16, 12.52, 12.52, 12.16, 12.39, 12.39, 12.05, 12.27, 12.65, 12.85, 12.85, 12.85, 13.42, 13.42, 13.42, 12.81, 12.42, 12.42, 12.42, 12.42, 12.54, 12.54, 12.16, 10.96, 9.5, 9.48, 9.58, 9.86, 9.6, 9.86, 9.49, 8.95, 8.05, 7.95, 10.81, 10.16, 10.16, 9.63, 9.63, 9.88, 8.8, 7.48, 6.92, 7.06, 6.79, 6.28, 5.75, 5.36, 4.92, 4.92, 4.66, 6.4, 6.79, 7.21, 7.37, 7.37, 8.33, 7.37, 8.05, 8.05, 8.05, 8.94, 8.94, 10.28, 11.44, 12.47, 12.81, 10.24, 8.67, 6.7, 8.77, 10.28, 11.18, 11.57, 11.57, 11.55, 11.4, 11.44, 11.58, 10.69, 9.39, 7.6, 9.39, 8.94, 8.05, 6.71, 6.71, 9.56, 9.56, 10.28, 10.28, 10.91, 10.91, 11.28, 11.54, 11.54, 11.54, 11.9, 12.16, 12.16, 12.16, 12.16, 12.16, 12.39, 12.39, 12.05, 12.27, 12.65, 12.85, 12.85, 12.85, 13.03, 13.03, 12.65, 12.42, 12.42, 12.03, 12.03, 12.03, 12.16, 12.16, 11.34, 9.86, 9.21, 8.93, 9.2, 9.47, 9.72, 9.45, 9.2, 9.03, 9.19, 10.24, 10.16, 9.48, 8.68, 8.15, 7.76, 7.08, 7.06, 7.2, 6.94, 6.94, 6.51, 6.2, 5.73, 5.36, 5.2, 4.77, 4.4, 7.21, 7.21, 7.37, 7.81, 7.81, 7.15, 8.05, 8.49, 8.49, 9.11, 8.33, 9.11, 10.08, 11.59, 14.21, 13.49, 11.14, 10.46, 11.18, 11.88, 12.48, 12.48, 12.07, 11.18, 11.18, 11.18, 11.18, 11.18, 9.8, 7.57, 8.01, 8.46, 8.44, 8.44, 8.44, 9.56, 9.56, 10.28, 10.28, 10.91, 10.91, 11.28, 10.9, 11.18, 11.54, 11.54, 12.16, 12.16, 12.16, 12.16, 12.16, 12.39, 12.39, 12.05, 12.27, 12.65, 12.85, 12.85, 12.85, 13.03, 13.03, 12.65, 12.42, 12.28, 12.03, 11.75, 11.5, 11.5, 11.5, 10.96, 9.86, 9.58, 9.3, 9.2, 9.6, 9.72, 9.2, 9.34, 9.34, 9.32, 10.0, 10.11, 9.51, 8.72, 7.81, 6.8, 6.4, 6.8, 6.8, 6.8, 6.8, 6.7, 6.45, 6.17, 5.7, 5.2, 4.8, 4.22, 6.32, 7.37, 7.6, 8.05, 8.05, 7.15, 7.37, 8.05, 8.33, 8.3, 8.72, 7.33, 7.21, 10.52, 13.38, 14.42, 13.59, 13.04, 12.79, 13.75, 13.49, 12.86, 12.07, 11.18, 10.66, 10.47, 11.0, 10.96, 9.64, 7.45, 8.8, 8.8, 8.87, 8.87, 8.87, 9.56, 9.56, 10.28, 10.28, 10.63, 10.91, 11.28, 10.9, 11.54, 11.54, 11.54, 11.9, 12.16, 12.16, 12.16, 12.16, 12.39, 12.39, 12.39, 12.27, 12.65, 12.65, 12.85, 12.85, 12.85, 13.03, 12.65, 12.42, 12.28, 11.75, 11.75, 11.36, 11.36, 11.22, 10.68, 9.76, 9.58, 9.3, 9.58, 9.35, 9.47, 9.72, 9.2, 9.2, 9.2, 9.72, 10.33, 10.54, 9.7, 8.72, 7.51, 6.92, 6.4, 6.4, 6.8, 6.6, 6.57, 6.16, 5.94, 5.81, 5.4, 4.98, 4.8, 4.8, 7.81, 8.05, 8.05, 6.79, 7.37, 7.21, 8.94, 8.24, 8.0, 8.05, 8.18, 8.4, 9.97, 11.62, 12.96, 13.52, 14.26, 16.1, 16.63, 15.36, 13.29, 12.3, 11.59, 11.12, 10.47, 10.05, 11.35, 6.11, 7.28, 8.14, 8.06, 8.38, 8.38, 8.38, 9.56, 9.56, 10.28, 10.28, 10.28, 10.91, 10.91, 10.9, 11.54, 11.54, 11.54, 11.54, 12.16, 12.16, 12.16, 12.16, 12.39, 12.39, 12.39, 12.39, 12.27, 12.65, 12.85, 12.85, 12.85, 13.03, 12.65, 12.42, 12.03, 12.28, 11.75, 11.36, 11.22, 10.83, 10.3, 10.13, 9.58, 9.58, 9.48, 9.35, 9.47, 9.86, 9.47, 9.47, 9.47, 9.6, 10.0, 10.33, 10.33, 9.42, 8.72, 7.31, 6.8, 6.6, 6.4, 5.95, 5.95, 6.4, 5.75, 5.81, 5.4, 5.4, 4.6, 5.09, 5.75, 8.49, 8.05, 7.15, 7.6, 8.05, 7.81, 7.6, 8.0, 8.4, 8.72, 9.21, 10.28, 11.18, 11.91, 11.55, 12.81, 16.02, 17.53, 15.61, 14.11, 12.72, 11.89, 11.62, 10.96, 11.28, 8.79, 5.86, 5.86, 6.79, 7.21, 7.37, 7.37, 7.37, 9.56, 9.56, 10.28, 10.28, 10.63, 10.91, 10.91, 10.9, 10.9, 11.54, 11.54, 11.54, 12.16, 12.16, 12.16, 12.16, 12.16, 12.39, 12.39, 12.39, 12.27, 12.65, 12.65, 12.85, 12.85, 12.85, 12.65, 12.27, 12.03, 12.28, 11.75, 11.36, 11.22, 10.94, 10.79, 10.24, 9.95, 9.58, 9.48, 9.35, 9.2, 9.47, 9.47, 9.47, 9.47, 9.6, 10.0, 9.71, 10.0, 10.0, 9.2, 8.68, 7.48, 7.03, 5.95, 5.95, 5.95, 6.13, 5.75, 5.75, 5.81, 5.4, 4.98, 5.09, 5.36, 8.49, 7.6, 7.81, 8.24, 7.2, 7.6, 7.6, 7.6, 8.77, 9.21, 9.83, 10.28, 11.18, 11.35, 10.62, 10.99, 14.05, 17.43, 16.14, 14.79, 13.64, 12.33, 11.62, 11.18, 9.2, 7.4, 5.34, 5.34, 6.02, 6.71, 2.49, 2.49, 2.49, 9.56, 9.56, 9.9, 10.28, 10.28, 10.63, 11.28, 10.9, 10.9, 11.18, 11.54, 11.54, 11.79, 12.16, 12.16, 12.16, 12.16, 12.39, 12.39, 12.01, 12.01, 12.27, 12.65, 12.85, 12.85, 12.85, 12.65, 12.27, 11.88, 11.88, 11.75, 11.36, 11.47, 10.94, 11.06, 10.52, 10.04, 9.67, 9.3, 9.2, 9.07, 9.47, 9.47, 9.47, 9.2, 9.35, 9.35, 9.71, 9.6, 9.6, 9.6, 8.96, 8.15, 7.34, 6.18, 5.95, 5.58, 5.24, 5.75, 5.01, 5.01, 4.98, 4.6, 4.57, 4.77, 7.63, 7.37, 7.37, 7.81, 7.89, 8.67, 8.24, 8.67, 9.21, 9.21, 9.64, 9.83, 10.28, 10.32, 10.46, 11.03, 12.63, 14.97, 15.72, 15.44, 14.35, 11.89, 10.28, 10.41, 8.63, 5.58, 4.66, 4.52, 6.17, 4.02, -0.0, -0.0, -0.0, 9.56, 9.56, 9.9, 10.28, 10.28, 10.63, 11.28, 10.9, 10.9, 11.54, 11.54, 11.54, 11.9, 12.16, 12.16, 12.16, 12.16, 12.16, 12.39, 12.39, 12.39, 12.27, 12.65, 12.65, 12.85, 12.47, 12.47, 12.27, 11.88, 11.5, 11.75, 11.75, 11.47, 10.94, 11.06, 10.35, 10.15, 9.78, 9.78, 9.7, 9.32, 8.93, 9.32, 9.32, 9.47, 9.2, 9.35, 9.35, 9.35, 9.35, 8.96, 8.43, 8.43, 7.35, 6.32, 6.08, 5.82, 5.58, 4.89, 5.37, 5.37, 4.98, 4.6, 4.57, 4.4, 5.58, 6.0, 7.01, 7.6, 8.49, 8.77, 9.21, 9.11, 9.21, 9.21, 9.21, 9.39, 9.83, 10.14, 10.32, 10.41, 11.13, 11.2, 12.51, 14.93, 14.84, 8.94, 7.52, 7.5, 5.51, 5.05, 4.84, 4.57, 5.51, 1.23, -0.0, -0.0, -0.0, 9.23, 9.23, 9.9, 10.28, 10.28, 10.63, 11.28, 10.9, 10.9, 11.54, 11.54, 11.54, 11.9, 12.16, 12.16, 12.16, 12.16, 12.16, 12.39, 12.39, 12.39, 12.27, 12.65, 12.65, 12.27, 12.47, 12.47, 12.27, 11.88, 11.88, 11.75, 11.61, 11.22, 10.94, 11.06, 10.35, 10.15, 9.9, 9.9, 9.52, 9.45, 9.05, 9.2, 8.93, 9.47, 9.47, 9.35, 9.74, 9.35, 9.35, 8.96, 8.43, 8.27, 6.79, 6.28, 6.0, 5.72, 5.82, 5.15, 4.89, 4.54, 4.54, 4.19, 4.6, 4.22, 5.01, 4.43, 6.51, 6.94, 7.81, 8.24, 8.77, 9.21, 9.13, 9.21, 9.21, 9.39, 9.39, 9.39, 9.7, 9.89, 9.97, 10.21, 11.68, 14.49, 13.34, 9.39, 5.75, 4.38, 5.26, 5.81, 6.0, 5.36, -0.0, -0.96, -0.89, -0.89, -0.89, 9.23, 9.23, 9.62, 10.28, 10.28, 10.28, 10.91, 10.9, 10.9, 11.25, 11.54, 11.9, 11.9, 12.16, 12.16, 12.16, 12.16, 12.16, 12.16, 12.39, 12.39, 12.39, 12.27, 12.27, 12.27, 12.47, 12.47, 12.09, 11.88, 11.88, 11.75, 11.61, 11.06, 11.33, 10.79, 10.35, 10.15, 9.9, 9.52, 9.84, 9.45, 9.45, 9.2, 9.2, 8.93, 9.47, 9.47, 9.6, 9.35, 9.35, 8.96, 8.43, 8.27, 7.15, 6.57, 6.28, 6.0, 5.72, 5.09, 5.15, 4.46, 4.46, 4.46, 4.46, 4.46, 4.19, 5.36, 5.21, 4.74, 5.95, 6.32, 7.6, 8.4, 8.8, 9.54, 9.21, 9.21, 8.94, 9.39, 9.39, 9.7, 9.74, 10.18, 11.58, 16.52, 14.75, 10.73, 8.05, 4.47, 4.92, 5.64, 2.4, -1.52, -0.96, -1.6, -1.96, -1.96, -1.96, 9.23, 9.23, 9.62, 10.28, 10.28, 10.28, 10.91, 11.28, 10.9, 11.25, 11.54, 11.9, 11.9, 11.9, 12.16, 12.16, 12.16, 12.16, 12.16, 12.39, 12.39, 12.39, 12.27, 12.27, 12.27, 12.27, 12.09, 12.09, 11.72, 11.34, 11.61, 11.22, 11.06, 11.17, 10.79, 10.52, 10.15, 10.09, 9.52, 9.84, 9.45, 9.6, 9.2, 9.2, 8.93, 9.07, 9.07, 9.6, 9.6, 9.35, 9.35, 8.82, 8.0, 7.44, 6.87, 6.23, 5.93, 6.0, 5.38, 5.09, 4.75, 4.73, 4.46, 4.84, 4.84, 4.46, 4.74, 4.43, 4.74, 5.95, 6.32, 5.69, 6.79, 6.32, 8.8, 8.4, 9.11, 8.94, 9.39, 9.39, 9.83, 9.83, 10.28, 14.75, 16.99, 15.65, 12.07, 9.39, 5.81, 4.47, 4.4, -0.0, -1.1, -1.47, -2.09, -2.33, -2.33, -2.33, 9.23, 9.23, 9.62, 9.92, 10.28, 10.28, 10.63, 10.91, 10.9, 10.9, 11.54, 11.54, 11.9, 11.9, 12.16, 12.16, 12.16, 12.16, 12.16, 12.52, 12.39, 12.05, 12.05, 12.27, 12.27, 11.9, 11.9, 12.09, 11.72, 11.34, 11.61, 11.06, 11.06, 10.79, 10.79, 10.52, 10.35, 10.09, 9.52, 9.52, 9.45, 9.6, 9.2, 8.93, 8.93, 8.68, 9.07, 9.07, 9.2, 9.6, 9.35, 8.82, 8.0, 7.8, 7.44, 6.87, 6.23, 5.93, 5.35, 5.05, 5.05, 4.75, 5.09, 5.43, 5.09, 5.09, 4.41, 4.73, 6.94, 6.79, 6.8, 6.01, 6.01, 5.69, 4.56, 6.32, 7.44, 8.0, 9.11, 9.11, 9.21, 9.83, 11.62, 14.28, 16.03, 14.69, 11.18, 8.05, 4.02, 4.02, 3.16, -1.4, -3.4, -2.99, -3.52, -3.14, -3.14, -3.14, 9.23, 9.23, 9.62, 9.92, 9.92, 10.28, 10.63, 11.28, 10.9, 10.9, 10.9, 11.54, 11.9, 11.9, 11.9, 12.16, 12.16, 12.16, 12.16, 12.52, 12.76, 12.39, 12.05, 12.05, 11.9, 11.9, 11.9, 11.72, 11.72, 11.34, 11.61, 11.06, 11.06, 10.79, 10.61, 10.52, 10.35, 9.78, 9.52, 9.52, 9.32, 8.93, 8.93, 8.93, 9.07, 9.07, 9.07, 9.07, 9.2, 9.2, 9.07, 8.82, 8.0, 7.51, 7.51, 7.44, 6.52, 6.23, 5.93, 5.35, 5.05, 5.09, 4.75, 5.09, 5.46, 5.09, 5.36, 4.93, 6.4, 6.94, 7.81, 8.24, 8.67, 8.67, 8.67, 6.01, 4.83, 6.32, 7.51, 8.4, 8.0, 9.21, 10.73, 13.15, 14.4, 13.05, 8.45, 5.36, 4.47, -0.0, -2.6, -3.6, -4.46, -4.44, -3.7, -3.35, -3.35, -3.35, 9.23, 9.23, 9.62, 9.62, 9.92, 9.92, 10.28, 10.91, 10.55, 10.55, 10.9, 11.54, 11.54, 11.9, 11.9, 12.16, 12.16, 12.16, 12.16, 12.52, 12.52, 12.76, 12.42, 12.05, 11.69, 11.9, 11.9, 11.53, 11.72, 11.34, 11.22, 11.06, 10.51, 10.79, 10.61, 10.52, 10.35, 9.78, 9.7, 9.52, 9.32, 8.93, 8.93, 9.07, 9.07, 9.07, 9.07, 9.2, 9.2, 9.07, 9.07, 9.07, 8.37, 7.73, 7.51, 7.17, 7.21, 6.52, 6.23, 5.59, 5.35, 5.38, 5.09, 5.09, 5.46, 5.46, 5.36, 5.36, 5.43, 7.21, 7.37, 8.05, 8.49, 8.94, 8.94, 8.94, 8.0, 5.36, 5.36, 7.15, 7.15, 8.77, 9.39, 11.58, 12.74, 12.77, 7.48, 3.79, -2.95, -2.76, -4.47, -5.1, -5.21, -4.66, -4.2, -3.7, -3.7, -3.7, 9.23, 9.23, 9.62, 9.62, 10.28, 10.28, 10.28, 10.55, 10.55, 10.55, 10.9, 11.54, 11.54, 11.9, 11.9, 11.9, 12.16, 12.16, 12.16, 12.16, 12.52, 12.52, 12.76, 12.05, 11.69, 11.69, 11.9, 11.53, 11.16, 11.16, 11.06, 10.68, 10.51, 10.79, 10.24, 10.52, 10.35, 9.78, 10.09, 9.7, 9.7, 9.32, 8.93, 9.07, 9.07, 8.82, 9.07, 9.2, 9.2, 9.2, 9.07, 8.93, 8.65, 8.0, 7.51, 7.51, 7.17, 6.87, 6.79, 6.23, 5.59, 5.35, 5.38, 5.43, 5.43, 5.43, 5.72, 5.72, 5.46, 5.95, 7.21, 7.21, 7.81, 8.05, 8.49, 8.49, 8.33, 7.15, 6.32, 7.15, 6.79, 8.0, 8.91, 10.23, 12.07, 12.94, 9.81, 4.09, -0.88, -2.4, -5.72, -6.18, -5.63, -5.21, -5.21, -4.66, -4.66, -4.66, 9.23, 9.23, 9.23, 9.62, 10.28, 10.28, 10.28, 10.63, 10.55, 10.55, 10.9, 10.9, 11.54, 11.9, 11.9, 11.9, 11.9, 12.16, 12.16, 12.52, 12.52, 12.52, 12.52, 12.39, 11.69, 11.69, 11.53, 11.53, 11.16, 10.79, 11.06, 10.68, 10.51, 10.24, 10.24, 10.35, 9.97, 9.78, 9.78, 9.7, 9.7, 9.32, 9.02, 8.82, 9.2, 8.82, 8.82, 9.2, 9.2, 9.2, 9.07, 8.8, 8.93, 8.0, 7.51, 7.51, 7.17, 7.21, 6.87, 6.57, 6.23, 5.35, 5.06, 5.38, 5.43, 5.43, 5.72, 5.43, 5.49, 5.72, 5.95, 5.95, 6.79, 7.21, 7.63, 7.07, 7.6, 7.6, 6.63, 6.79, 7.15, 8.72, 8.91, 9.6, 11.51, 12.96, 11.18, 6.23, -1.23, -3.8, -6.01, -6.95, -6.64, -6.01, -5.21, -5.21, -5.21, -5.21, 9.23, 9.23, 9.23, 9.62, 10.28, 10.28, 10.28, 10.63, 10.91, 10.91, 10.9, 10.9, 11.54, 11.54, 11.9, 11.54, 11.54, 12.16, 12.16, 12.16, 12.52, 12.52, 12.52, 12.52, 11.69, 11.32, 11.32, 11.53, 11.16, 10.79, 11.06, 10.51, 10.51, 10.24, 10.24, 10.35, 10.35, 9.78, 9.78, 9.4, 9.4, 9.02, 9.02, 9.2, 9.2, 9.2, 8.82, 8.96, 9.2, 9.07, 9.07, 8.8, 8.54, 8.09, 7.8, 7.17, 7.17, 7.21, 6.87, 6.87, 6.57, 5.65, 5.35, 5.38, 5.38, 5.72, 5.72, 6.18, 6.18, 5.82, 4.81, 7.21, 7.15, 7.15, 7.37, 7.81, 8.24, 8.24, 8.67, 8.0, 8.3, 8.72, 8.91, 9.33, 11.33, 12.87, 11.6, 9.26, -2.06, -6.01, -7.81, -8.34, -7.47, -6.95, -6.01, -5.21, -5.21, -5.21, 9.23, 9.23, 9.23, 9.62, 9.92, 10.28, 10.28, 10.28, 10.91, 10.91, 11.28, 11.28, 11.25, 11.54, 11.54, 11.54, 11.54, 11.79, 12.16, 12.16, 12.16, 12.52, 12.52, 12.16, 11.69, 11.32, 11.32, 10.96, 11.16, 10.79, 11.06, 10.51, 9.95, 10.24, 10.04, 10.35, 10.35, 9.78, 9.78, 9.78, 9.4, 9.4, 9.4, 9.2, 9.2, 9.2, 8.82, 8.82, 9.07, 9.07, 8.68, 8.54, 8.54, 8.09, 7.8, 7.44, 6.92, 6.87, 6.87, 6.52, 6.28, 6.23, 5.65, 5.68, 5.72, 5.72, 6.08, 5.77, 6.55, 6.18, 5.82, 7.37, 6.71, 7.6, 7.15, 7.6, 8.05, 8.49, 8.49, 8.77, 8.3, 8.91, 8.63, 9.33, 11.33, 12.42, 12.07, 10.73, 4.4, -6.95, -8.4, -7.96, -8.18, -7.06, -6.11, -5.2, -5.2, -5.2, 9.23, 9.23, 9.96, 9.96, 9.96, 10.28, 10.28, 10.28, 10.28, 10.91, 10.91, 11.28, 11.64, 11.54, 11.54, 11.54, 11.54, 11.54, 11.79, 12.16, 12.16, 12.16, 12.16, 12.16, 11.44, 11.32, 11.32, 10.96, 10.96, 10.79, 10.88, 10.51, 9.95, 10.24, 10.04, 9.97, 9.97, 9.78, 9.78, 9.4, 9.4, 9.4, 9.58, 9.2, 9.2, 9.2, 9.2, 8.82, 9.07, 9.07, 8.68, 8.54, 8.54, 8.09, 7.44, 7.44, 7.21, 6.87, 6.87, 6.28, 6.28, 5.95, 5.65, 5.37, 5.68, 5.72, 5.72, 6.11, 6.55, 6.18, 5.58, 5.51, 5.26, 7.6, 6.71, 7.6, 8.05, 8.49, 8.49, 8.33, 8.3, 8.48, 8.63, 8.91, 10.84, 11.52, 12.07, 10.28, 9.83, 6.64, -6.64, -7.68, -7.51, -6.73, -6.32, -5.2, -5.2, -5.2, 9.23, 9.23, 9.96, 9.96, 9.96, 10.28, 10.28, 10.28, 10.28, 10.91, 10.91, 11.28, 11.64, 11.54, 11.54, 11.54, 11.54, 11.54, 11.79, 12.16, 12.16, 12.16, 12.16, 12.16, 11.44, 11.32, 11.32, 10.96, 10.96, 10.79, 10.88, 10.51, 9.95, 10.24, 10.04, 9.97, 9.97, 9.78, 9.78, 9.4, 9.4, 9.4, 9.58, 9.2, 9.2, 9.2, 9.2, 8.82, 9.07, 9.07, 8.68, 8.54, 8.54, 8.09, 7.44, 7.44, 7.21, 6.87, 6.87, 6.28, 6.28, 5.95, 5.65, 5.37, 5.68, 5.72, 5.72, 6.11, 6.55, 6.18, 5.58, 5.51, 5.26, 7.6, 6.71, 7.6, 8.49, 8.49, 8.49, 8.33, 8.3, 8.48, 8.22, 8.79, 9.92, 11.05, 11.62, 10.25, 9.79, 9.76, 9.13, 1.84, -4.2, -6.11, -6.64, -5.46, -5.46, -5.46]}, {"header": {"dx": 0.06612293990616946, "dy": 0.0552356325346848, "nx": 98, "ny": 59, "la1": 35.046912555036876, "la2": 31.78801023549047, "lo1": -121.43107172385933, "lo2": -114.95102361305473, "refTime": "2026040902", "parameterCategory": 1, "parameterNumber": 3}, "data": [-8.85, -8.85, -8.85, -8.85, -8.85, -8.85, -9.3, -9.3, -9.3, -9.3, -9.08, -7.51, -6.94, -5.0, -3.61, -1.76, 0.0, 0.0, 0.0, 0.0, 0.0, 0.0, 0.0, 0.0, 0.0, -0.79, -4.43, -6.26, -5.94, -5.94, -6.36, -5.81, -5.36, -5.36, -5.09, -5.21, -5.06, -5.06, -4.56, -4.83, -4.37, -5.46, -7.26, -8.3, -8.58, -8.46, -9.88, -10.31, -9.96, -7.93, -5.43, -1.64, 0.0, 0.0, 0.0, 1.07, 1.01, 1.05, 1.05, 2.08, 2.08, 2.08, 2.0, 2.0, 2.08, 2.08, 2.08, 1.09, 0.97, 0.97, 1.0, 0.0, 0.0, 0.0, 0.0, 0.0, 0.0, 0.0, -1.17, -1.38, -1.45, -1.01, -0.82, -1.55, -2.4, -2.6, 0.0, 7.07, 8.49, 8.94, 8.94, 9.83, 10.96, 10.8, 8.85, 7.51, 4.8, 3.49, -8.58, -8.85, -8.85, -8.85, -8.85, -8.85, -9.12, -9.12, -9.3, -9.3, -8.73, -8.1, -6.45, -5.21, -4.58, -1.84, 0.0, 0.0, 0.0, 0.0, 0.0, 0.0, 0.0, 0.0, 0.0, -1.45, -3.45, -6.71, -6.0, -6.0, -6.36, -5.94, -5.81, -5.81, -5.21, -5.06, -4.83, -4.83, -5.1, -6.32, -6.14, -7.26, -8.3, -9.62, -11.22, -12.2, -12.42, -12.36, -10.05, -6.42, 0.0, 2.71, 2.19, 1.18, 0.0, 0.0, 1.01, 0.97, 0.97, 0.97, 1.05, 1.05, 1.01, 1.05, 1.05, 1.05, 1.05, 1.09, 0.0, 0.0, 0.0, 0.0, 0.0, 0.0, 0.0, 0.0, 0.0, 0.0, -1.17, -1.38, -1.45, -1.01, -0.82, -1.55, -2.4, -2.6, 0.0, 7.07, 8.49, 8.94, 8.94, 9.83, 10.96, 10.8, 8.85, 7.51, 4.8, 3.49, -8.1, -8.36, -8.36, -8.85, -8.85, -8.85, -9.12, -9.58, -9.58, -9.37, -8.49, -7.27, -7.65, -5.64, -4.36, -2.6, -1.58, -1.84, -2.19, -3.53, -2.39, -3.39, -3.53, -3.25, -2.17, -1.96, -4.19, -6.71, -6.23, -6.64, -7.06, -6.4, -6.79, -7.6, -5.58, -6.01, -4.83, -5.59, -6.64, -7.9, -8.22, -10.25, -11.38, -13.1, -14.38, -14.22, -13.69, -11.0, -6.0, 0.0, 4.6, 3.25, 1.52, 0.0, 0.0, 0.0, 0.0, 0.0, 0.0, 0.0, 0.0, 0.0, 1.01, 1.05, 1.05, 1.05, 1.09, 0.0, 0.0, 0.0, 0.0, 0.0, 0.0, 0.0, -0.89, -0.79, -0.85, -1.08, -2.28, -1.66, -1.45, -1.14, -2.09, -1.98, -2.4, -1.4, 5.69, 8.49, 8.77, 8.94, 10.73, 11.62, 9.67, 8.22, 6.45, 4.8, 4.2, 4.2, -8.1, -8.1, -8.36, -8.36, -8.85, -8.85, -9.12, -9.58, -9.3, -9.08, -8.53, -7.91, -8.53, -6.71, -5.54, -3.92, -4.08, -3.32, -4.48, -2.71, -2.71, -3.25, -2.71, -5.2, -3.39, -4.4, -5.06, -7.15, -6.64, -7.21, -7.6, -8.0, -8.3, -8.94, -8.48, -7.81, -6.95, -7.9, -8.75, -10.99, -12.36, -14.26, -14.09, -12.96, -12.33, -9.92, -6.8, -1.58, 0.0, 1.62, 1.33, 0.0, 0.0, 0.0, 0.0, 0.0, 0.0, 0.0, 0.0, 0.0, 0.0, 0.0, 0.0, 1.05, 1.16, 1.05, 1.05, 0.89, 0.83, 0.89, 1.06, 0.0, 0.0, -0.83, -1.45, -1.62, -2.39, -3.04, -2.72, -3.25, -2.33, -1.98, -2.26, -2.32, -2.99, 2.83, 8.94, 8.33, 8.77, 10.73, 12.52, 11.03, 7.9, 3.39, 2.97, 5.46, 6.64, 8.0, -8.1, -8.1, -8.36, -8.36, -8.85, -8.85, -9.12, -9.58, -9.3, -9.43, -8.53, -7.94, -8.75, -7.15, -6.24, -6.76, -5.2, -4.75, -4.48, -7.24, -6.94, -5.95, -3.39, -5.2, -4.8, -5.0, -8.18, -9.39, -9.11, -8.17, -8.6, -9.54, -11.28, -11.62, -11.06, -10.27, -10.27, -10.55, -12.52, -15.42, -15.64, -13.39, -10.17, -8.23, -6.3, -2.93, 0.0, 0.0, 0.0, 0.0, 0.0, 0.0, 0.0, 0.0, 0.0, 0.0, 0.0, 0.0, 0.0, 0.0, 0.0, 0.0, 0.0, 1.11, 1.11, 1.05, 1.05, 1.05, 0.97, 1.98, 1.06, 1.2, 1.07, 0.0, -1.04, -2.17, -2.47, -2.83, -3.82, -4.39, -2.64, -2.4, -2.6, -2.66, 0.0, 8.49, 8.77, 8.0, 11.28, 13.41, 12.52, 7.59, 0.0, 0.0, 4.2, 7.81, 8.67, 8.77, -8.1, -8.1, -8.1, -8.36, -8.36, -8.85, -9.12, -9.3, -9.66, -9.43, -8.9, -8.03, -7.9, -6.24, -6.5, -6.5, -5.77, -6.7, -7.73, -8.85, -10.87, -10.48, -11.99, -10.79, -8.53, -8.53, -10.79, -11.18, -10.52, -10.52, -9.29, -9.32, -9.83, -12.01, -13.01, -12.72, -11.6, -11.21, -13.39, -15.62, -13.58, -11.9, -8.01, -5.6, -3.96, -3.04, -1.71, -1.44, -1.28, -1.23, -1.23, -1.18, -1.18, -1.18, -1.11, -1.16, -1.16, 0.0, 0.0, 0.0, 0.0, 0.0, 1.23, 1.11, 1.11, 1.01, 1.01, 0.97, 1.01, 1.01, 2.06, 2.11, 2.09, 2.21, 0.0, -1.25, -1.94, -2.09, -1.03, -2.97, -2.99, -3.68, -3.68, -2.4, 8.05, 6.01, 6.01, 8.22, 12.79, 9.48, 0.0, 0.0, 0.0, 6.01, 9.39, 9.39, 8.94, 9.7, -8.1, -8.1, -8.1, -8.36, -8.36, -8.85, -8.85, -9.3, -9.37, -9.8, -9.34, -7.76, -7.59, -5.69, -5.99, -6.5, -7.02, -7.28, -8.15, -8.85, -9.76, -12.5, -13.99, -15.27, -14.42, -13.19, -14.42, -14.3, -12.71, -10.32, -10.52, -9.29, -9.83, -9.54, -10.92, -13.02, -13.02, -11.75, -10.52, -11.16, -12.79, -12.04, -11.5, -9.48, -8.18, -6.87, -4.93, -3.19, -2.82, -2.93, -2.82, -2.33, -1.23, -1.23, -1.16, -1.16, -1.16, -1.16, -1.05, 0.0, 0.0, 0.0, 0.0, 1.07, 0.97, 0.97, 0.97, 0.0, 0.0, 0.97, 0.89, 0.97, 1.71, 1.89, 2.01, 1.11, 0.0, 0.0, 0.0, -1.93, -2.82, -6.01, -6.64, -0.0, 5.95, 2.82, 3.82, -0.0, -0.0, -0.0, -12.07, -8.53, 0.0, 8.49, 8.77, 8.94, 8.94, 9.26, -7.85, -8.1, -8.1, -8.1, -8.36, -8.36, -8.85, -9.3, -9.37, -9.48, -9.16, -8.6, -7.9, -6.5, -6.21, -6.71, -6.4, -7.19, -7.78, -8.73, -7.79, -7.11, -8.05, -12.52, -13.29, -13.59, -14.53, -16.09, -14.31, -12.45, -11.91, -11.95, -12.52, -12.04, -10.17, -11.55, -11.97, -9.58, -9.67, -9.97, -12.04, -12.87, -14.79, -15.61, -14.39, -11.44, -7.26, -5.0, -4.58, -4.75, -3.77, -2.71, -2.52, -2.52, -2.28, -1.16, -1.16, -1.16, -0.97, -0.97, 0.0, 0.0, 0.0, 0.0, 0.0, 0.0, 0.0, 0.0, 0.0, 0.0, 0.0, 0.89, 0.8, 0.8, 0.84, 0.78, 0.96, 1.33, 0.0, -2.81, -11.06, -8.53, -0.0, 2.6, -0.0, -0.0, -0.0, -4.1, -9.17, -10.8, -11.18, 0.0, 7.6, 8.49, 8.38, 8.49, 8.94, 8.94, -7.85, -8.1, -8.1, -8.1, -8.36, -8.36, -8.85, -9.3, -9.73, -9.56, -9.81, -10.58, -11.92, -10.62, -9.36, -9.42, -9.17, -8.83, -8.73, -8.59, -8.05, -4.24, -5.15, -5.81, -7.78, -7.9, -6.95, -13.15, -15.65, -14.11, -13.86, -15.2, -15.2, -13.79, -11.96, -10.73, -10.0, -9.6, -7.81, -9.75, -12.3, -13.19, -12.65, -11.2, -11.03, -10.84, -11.45, -7.9, -5.7, -5.32, -4.58, -3.77, -4.08, -3.68, -2.28, -2.28, -2.28, -2.0, -1.91, -0.89, -0.93, -0.97, -0.93, 0.0, 0.0, 0.0, 0.0, 0.0, 0.0, 0.0, 0.0, 0.0, 0.0, 0.0, 0.0, 0.0, 0.0, 0.0, 0.0, -1.68, -6.14, -0.0, 2.39, -0.0, -0.0, -2.49, -4.8, -7.9, -8.93, -6.95, 5.81, 5.7, 6.61, 7.97, 8.49, 8.49, 8.94, 8.94, -8.2, -7.85, -8.1, -8.1, -8.36, -8.36, -8.85, -9.3, -9.73, -9.56, -10.41, -11.26, -10.35, -11.72, -12.2, -11.81, -12.18, -12.56, -12.9, -11.99, -11.6, -10.55, -9.8, -9.31, -9.31, -8.22, -5.31, -7.59, -14.31, -14.3, -14.64, -16.44, -15.65, -13.86, -12.07, -11.09, -8.3, -7.21, 0.0, 0.0, -10.73, -12.71, -10.38, -8.4, -7.07, -7.07, -7.6, -9.2, -6.71, -5.06, -4.4, -4.05, -3.77, -3.53, -3.34, -3.34, -2.08, -2.82, -2.82, -2.61, -1.84, -1.84, -1.14, -0.85, 0.0, 0.0, 1.01, 0.93, 1.05, 0.0, 0.0, 0.0, -0.75, -0.74, -0.74, -0.72, -1.52, -1.62, -2.0, -2.72, -3.16, 0.0, 7.44, 2.4, -0.0, -5.06, -6.44, -6.79, -3.6, 5.51, 5.36, 4.92, 6.64, 7.21, 8.38, 8.94, 8.77, 8.94, -8.2, -7.85, -8.1, -8.36, -8.01, -8.36, -8.85, -9.3, -9.73, -9.89, -10.66, -11.28, -10.82, -11.32, -11.9, -12.62, -13.42, -14.13, -14.38, -15.96, -16.25, -16.12, -14.79, -12.03, -12.45, -10.37, -7.81, -7.9, -12.04, -13.67, -12.71, -12.04, -11.71, -11.18, -11.18, -12.07, -11.18, 0.0, 5.06, 5.06, 0.0, -9.54, -10.08, -9.13, -8.05, -7.07, -7.07, -6.01, -6.01, -6.32, -4.83, -4.2, -3.87, -3.61, -3.39, -3.21, -3.34, -4.12, -3.82, -3.68, -2.94, -1.93, -0.89, 0.0, 1.09, 2.33, 4.54, 4.9, 3.82, 1.5, 0.0, -1.98, -2.62, -3.34, -3.14, -3.04, -2.88, -3.25, -2.83, -3.96, -3.1, 1.94, 8.43, 12.96, -0.0, -6.79, -7.6, -6.01, 5.94, 4.92, 5.81, 7.15, 6.61, 6.36, 7.63, 8.49, 8.49, 8.33, -8.2, -8.2, -8.1, -8.36, -8.01, -8.01, -8.36, -8.85, -9.73, -10.24, -10.63, -10.9, -11.15, -10.44, -9.15, -8.85, -9.17, -12.39, -14.39, -14.93, -13.86, -11.99, -11.2, -12.74, -11.5, -10.23, -9.88, -5.06, -5.06, -6.0, -8.06, -3.72, 0.0, 4.43, 9.6, 0.0, 0.0, 5.37, 5.37, 2.54, 4.22, -3.4, -9.39, -9.03, -8.0, -7.47, -7.07, -7.07, -6.01, -6.32, -5.1, -4.6, -3.52, -3.52, -3.3, -2.17, -2.23, -2.37, -4.28, -3.82, -2.98, 0.0, 0.0, 3.65, 5.7, 6.98, 9.17, 9.53, 7.9, 4.6, 2.23, 0.0, -2.6, -4.99, -5.4, -4.87, -5.0, -4.25, -4.44, -5.6, -2.13, 3.82, 8.15, 9.44, 4.8, 0.0, -2.17, 4.2, 8.82, 7.15, 7.6, 7.6, 7.06, 6.36, 6.4, 7.06, 7.6, 7.6, -8.2, -8.2, -8.1, -8.36, -8.36, -8.01, -8.01, -8.58, -9.31, -10.18, -10.58, -10.86, -11.15, -11.09, -10.35, -9.33, -8.25, -8.38, -9.53, -10.81, -9.84, -9.5, -9.85, -9.02, -7.1, -5.41, -4.31, -3.52, -2.46, -1.1, -0.95, 0.0, 0.0, 2.6, 5.6, 5.6, 6.71, 6.8, 5.37, 2.4, 1.84, 0.0, -9.21, -8.87, -8.33, -7.89, -7.81, -8.24, -7.6, -7.07, -6.52, -5.69, -5.44, -3.97, -2.83, 0.0, 0.0, 0.0, -1.91, -4.74, 0.0, 9.83, 7.81, 8.05, 9.04, 10.18, 10.92, 10.99, 9.58, 8.69, 7.13, 4.78, 0.0, -4.5, -5.76, -6.57, -5.98, -5.69, -5.0, -2.95, 1.54, 4.83, 5.92, 6.0, 6.63, 4.39, 2.6, 4.66, 8.43, 8.38, 7.15, 7.15, 7.5, 6.36, 5.75, 5.75, 6.64, 7.15, -8.2, -8.2, -7.85, -8.1, -8.36, -8.1, -8.1, -8.1, -9.31, -10.51, -10.51, -10.48, -10.78, -11.09, -11.03, -9.97, -9.23, -8.12, -8.36, -8.84, -8.31, -7.36, -7.23, -6.27, -5.21, -4.19, -2.95, -2.12, -1.27, -0.6, -1.11, -1.5, -1.14, 0.0, 6.26, 5.6, 6.26, 6.79, 5.06, 0.0, 0.0, -2.26, -8.55, -11.09, -9.77, -9.6, -7.85, -9.64, -10.52, -9.6, -8.18, -7.59, -9.48, -6.2, 0.0, 0.0, 0.0, 0.0, 0.0, 3.4, 7.87, 10.28, 10.08, 9.13, 9.03, 9.54, 9.6, 9.75, 9.32, 7.4, 7.18, 7.13, 3.98, -6.95, -8.18, -7.9, -4.8, -2.83, 0.0, 1.93, 3.87, 4.2, 4.32, 3.53, 6.08, 4.98, 3.73, 4.05, 5.37, 7.5, 7.6, 7.15, 7.06, 6.64, 6.0, 5.75, 5.75, 6.23, -8.2, -8.2, -8.2, -8.1, -8.1, -8.1, -8.1, -8.1, -9.31, -10.12, -10.12, -10.43, -10.07, -10.4, -11.03, -10.65, -10.02, -9.17, -9.09, -9.02, -8.26, -7.71, -6.35, -5.56, -5.32, -4.35, -4.06, -3.32, -2.5, -1.83, -1.72, -2.34, -3.21, -1.18, 0.0, 6.8, 7.63, 7.21, 4.71, 0.0, -2.4, -3.8, -7.59, -10.58, -8.87, -8.43, -7.06, -7.06, -6.44, -5.46, -5.7, -4.6, 0.0, 5.69, 7.15, 0.0, -5.37, -5.1, -2.99, 8.0, 8.94, 9.39, 8.67, 8.0, 7.81, 8.18, 6.95, 6.95, 6.95, 5.63, 5.24, 7.27, 11.62, -4.8, 0.0, 6.95, 5.7, 5.29, 4.6, 3.61, 3.11, 3.11, 1.84, 2.1, 1.14, 2.72, 2.91, 3.07, 6.01, 7.89, 7.94, 7.5, 7.01, 7.21, 6.4, 5.59, 5.24, 5.24, -8.2, -8.2, -8.2, -8.1, -8.1, -8.1, -8.1, -8.1, -8.84, -9.7, -10.43, -10.43, -10.07, -10.4, -10.35, -10.37, -10.02, -9.99, -9.87, -9.49, -9.09, -8.59, -8.06, -7.4, -6.52, -5.43, -4.63, -3.9, -3.07, -2.4, -1.81, -1.76, -1.69, -2.19, 0.0, 2.26, 7.21, 6.8, 3.6, 0.0, -1.73, -3.2, -4.83, -7.2, -8.05, -8.05, 0.0, 0.0, 0.0, 0.0, 0.0, 0.0, 4.46, 5.69, 5.37, 0.0, -2.4, -5.1, -2.17, 4.2, 7.44, 8.4, 7.28, 5.69, 4.22, 1.95, 1.84, 2.97, 5.46, 6.64, 3.91, 0.0, -0.0, 5.2, 10.84, 9.58, 8.53, 7.41, 5.98, 5.21, 4.6, 3.99, 3.14, 2.33, 1.14, 0.0, 0.0, 1.62, 5.1, 7.47, 8.38, 7.01, 7.21, 6.8, 6.7, 5.24, 4.89, 4.89, -8.2, -8.2, -8.46, -8.2, -7.85, -8.1, -8.1, -8.72, -8.84, -9.31, -10.04, -10.07, -10.37, -10.4, -10.35, -9.69, -9.77, -10.02, -9.99, -9.57, -9.17, -8.77, -8.28, -6.92, -5.5, -4.69, -3.76, -3.04, -2.45, -2.36, -1.78, -1.78, -1.74, -2.04, -1.96, 0.0, 3.2, 2.26, 0.0, -1.49, -4.29, -4.02, -5.1, -5.69, -9.39, 6.32, 8.48, 8.49, 7.6, 6.01, 4.96, 4.96, 4.96, 4.96, 4.0, 2.17, 0.0, 0.0, 1.33, 5.7, 7.27, 6.64, 5.31, 4.14, 2.99, 0.0, 0.0, 0.0, 4.0, 2.69, 0.0, -6.2, 0.0, 8.22, 8.22, 9.66, 8.85, 8.3, 7.12, 6.24, 5.76, 5.06, 4.34, 3.6, 3.35, 2.54, 0.0, 6.01, 7.6, 7.89, 8.3, 7.47, 7.06, 7.2, 7.67, 5.59, 4.89, 4.89, -8.2, -8.2, -8.46, -8.46, -7.85, -7.85, -8.1, -8.46, -9.11, -9.11, -9.6, -9.95, -10.01, -10.4, -10.06, -9.33, -9.39, -9.35, -9.32, -9.32, -8.64, -8.47, -7.76, -5.64, -3.47, -2.65, -2.61, -1.9, -1.83, -2.4, -2.47, -2.47, -2.4, -2.87, -2.84, -3.27, -3.0, -3.47, -3.0, -4.29, -4.56, -5.69, -4.46, -3.8, 8.94, 9.39, 8.94, 8.0, 6.32, 5.21, 6.64, 6.64, 6.64, 4.2, 4.0, 1.84, 1.54, 2.97, 5.46, 6.3, 6.3, 6.01, 4.96, 3.8, 1.4, 0.0, 0.0, -2.4, -6.95, -7.9, -4.48, -2.82, 1.5, 5.08, 7.51, 8.85, 7.96, 6.79, 6.43, 5.72, 5.35, 4.25, 4.0, 3.3, 2.97, 3.8, 4.6, 6.79, 7.28, 7.67, 8.05, 7.89, 7.06, 7.67, 7.67, 5.93, 4.74, 4.74, -8.2, -8.2, -8.2, -8.46, -7.85, -7.85, -8.1, -8.46, -8.72, -9.11, -9.6, -9.49, -10.3, -9.95, -10.4, -11.06, -9.14, -9.48, -8.68, -7.54, -7.49, -7.44, -8.05, -7.4, -5.11, -4.86, -3.21, -4.32, -5.01, -4.22, -4.15, -4.23, -4.23, -4.12, -4.1, -4.57, -4.47, -4.45, -5.3, -4.75, -4.47, -3.4, 0.0, 0.0, 7.6, 8.0, 8.0, 6.64, 6.64, 5.21, 6.64, 5.63, 5.63, 4.0, 5.36, 4.83, 4.83, 5.86, 5.46, 5.46, 5.46, 4.2, 4.0, 2.4, 0.0, 0.0, 0.0, -2.66, -4.96, -5.52, -1.84, 1.0, 4.38, 5.31, 4.51, 3.41, 1.25, 1.04, 1.77, 1.71, 1.76, 0.98, 1.22, 2.39, 3.11, 2.97, 6.42, 8.73, 8.38, 8.43, 7.67, 7.67, 7.28, 7.67, 7.28, 5.93, 5.93, 5.93, -8.2, -8.2, -8.2, -8.2, -8.2, -7.85, -8.1, -8.46, -8.72, -9.11, -9.11, -9.49, -9.87, -9.95, -10.35, -9.73, -9.5, -9.5, -10.11, -8.65, -7.95, -8.37, -9.35, -10.77, -10.22, -9.78, -8.77, -7.54, -7.03, -6.96, -6.44, -6.41, -6.06, -5.2, -5.23, -5.77, -5.09, -3.85, -2.77, -2.26, -1.25, 0.0, 1.22, 1.76, 2.4, 3.6, 4.71, 4.96, 2.97, 5.21, 5.21, 4.0, 5.36, 5.36, 4.83, 6.01, 6.14, 5.31, 5.59, 4.4, 4.2, 2.83, 1.4, 0.0, 0.0, 0.0, -1.4, -1.4, -1.32, 0.0, 2.02, 4.49, 6.47, 4.78, 1.68, -0.95, -4.24, -5.18, -2.71, -0.93, 0.0, 0.0, 0.0, 0.0, 1.47, 3.8, 6.63, 7.07, 8.73, 7.67, 7.67, 6.98, 7.68, 7.67, 6.98, 6.98, 5.69, 5.69, -8.56, -8.2, -8.2, -8.2, -8.2, -7.85, -7.85, -8.1, -8.72, -8.99, -8.72, -9.49, -9.39, -9.5, -9.95, -10.02, -9.5, -9.8, -9.17, -10.75, -10.61, -10.02, -10.76, -10.77, -11.36, -10.69, -9.48, -8.56, -8.79, -8.33, -8.08, -7.6, -7.12, -6.62, -6.62, -5.73, -4.05, -3.08, -2.32, -1.16, 0.0, 1.16, 1.71, 2.17, 2.26, 3.6, 3.15, 2.17, 2.17, 2.17, 3.8, 3.8, 5.69, 6.79, 6.79, 5.69, 6.63, 6.52, 6.14, 3.32, 3.32, 1.67, 0.0, 0.0, 0.0, 0.0, 0.0, 0.0, 2.99, 4.96, 7.65, 8.78, 7.2, 3.59, -0.87, -4.27, -8.56, -8.59, -7.36, -4.62, -2.71, -0.81, 0.0, 1.2, 2.83, 5.31, 6.98, 7.07, 7.07, 6.63, 6.98, 7.68, 8.03, 6.63, 6.63, 6.01, 5.69, 5.69, -8.56, -8.2, -8.2, -8.2, -8.2, -7.85, -7.85, -8.1, -8.72, -8.99, -8.99, -9.49, -9.12, -9.02, -9.5, -9.28, -9.12, -9.5, -9.8, -11.36, -11.0, -10.41, -11.07, -11.38, -11.72, -11.39, -10.08, -8.77, -8.14, -8.14, -7.7, -7.45, -7.0, -6.48, -6.48, -5.17, -3.04, -2.73, -1.84, -1.12, 0.0, 0.57, 1.18, 2.19, 2.75, 3.49, 3.15, 1.67, 0.0, 1.95, 1.84, 5.69, 7.2, 7.2, 6.44, 6.9, 7.2, 7.58, 7.21, 4.6, 1.95, 1.67, 0.0, 0.0, 0.0, 0.0, 0.0, 3.4, 7.06, 8.72, 9.75, 10.61, 8.31, 4.73, -5.72, -10.94, -13.38, -12.87, -10.3, -8.22, -5.29, -2.44, 0.0, 1.33, 4.83, 6.32, 7.67, 8.05, 7.44, 7.33, 8.73, 8.03, 8.03, 6.63, 6.01, 5.37, 4.75, 4.75, -8.56, -8.56, -8.2, -8.2, -8.2, -7.85, -8.1, -8.1, -8.72, -8.99, -9.49, -9.49, -9.39, -9.02, -9.5, -8.84, -9.02, -9.14, -9.79, -10.71, -9.99, -9.47, -9.49, -10.75, -11.38, -11.1, -10.05, -8.97, -8.56, -7.0, -7.03, -6.36, -5.88, -5.85, -5.88, -3.94, -2.4, -2.2, -1.35, -0.72, 0.0, 0.57, 1.18, 2.26, 3.22, 3.83, 2.54, 0.0, 0.0, 0.0, 4.22, 6.32, 6.8, 6.8, 6.8, 7.06, 6.64, 7.2, 6.98, 4.87, 3.6, 0.0, 0.0, 0.0, -1.32, 0.0, 3.72, 6.51, 7.89, 8.94, 9.83, 9.75, 2.48, 0.0, -4.11, -9.83, -13.28, -13.97, -12.52, -10.82, -6.83, -4.5, -2.17, 0.0, 4.83, 6.64, 8.05, 8.05, 8.82, 9.08, 9.77, 8.73, 7.27, 5.03, 5.31, 4.75, 4.47, 4.47, -8.56, -8.56, -8.56, -8.2, -8.2, -8.2, -7.85, -8.1, -8.72, -8.99, -8.99, -9.39, -9.39, -9.02, -9.02, -9.16, -8.84, -8.75, -9.69, -10.05, -9.45, -9.0, -9.07, -9.14, -9.8, -9.84, -10.1, -9.4, -8.52, -7.84, -7.2, -6.02, -5.67, -5.18, -5.05, -3.91, -2.32, -1.41, -0.67, -0.72, 0.0, 0.0, 1.32, 1.8, 2.82, 2.84, 1.2, 0.0, 0.0, 1.84, 5.69, 6.8, 6.8, 6.8, 6.4, 6.4, 6.51, 6.4, 6.01, 5.03, 2.64, 0.0, 0.0, 0.0, 0.0, 4.11, 7.89, 8.6, 8.48, 8.24, 7.2, -3.98, -0.83, 1.64, 3.68, 4.6, 2.83, 0.0, -7.36, -9.31, -8.85, -6.48, -3.8, 0.0, 5.36, 7.67, 8.72, 8.72, 8.05, 8.05, 6.64, 6.01, 5.31, 4.75, 4.75, 4.75, 4.47, 4.47, -8.56, -8.56, -8.56, -8.2, -8.2, -8.2, -7.85, -8.1, -8.72, -8.99, -8.99, -9.12, -9.39, -9.02, -8.68, -9.16, -8.84, -8.58, -9.02, -9.23, -9.07, -9.0, -9.28, -9.61, -9.69, -8.86, -8.81, -8.77, -8.74, -8.3, -7.84, -6.66, -5.81, -5.3, -4.66, -4.48, -3.32, -2.44, -1.32, -0.62, -0.67, 0.0, 0.71, 1.32, 2.54, 1.67, 0.57, 0.57, 1.23, 1.98, 3.08, 4.56, 5.06, 5.06, 6.8, 5.95, 5.95, 4.43, 2.4, 1.58, 2.54, 0.95, 0.0, 0.0, 3.22, 7.89, 8.94, 9.32, 8.6, 5.69, 0.0, -3.45, 0.0, 2.39, 4.61, 6.4, 6.27, 3.29, 0.0, -5.4, -9.48, -8.24, -5.54, 0.0, 6.44, 7.47, 7.89, 8.3, 8.3, 8.0, 8.0, 6.63, 5.69, 4.56, 3.68, 3.68, 3.2, 3.2, -8.56, -8.56, -8.56, -8.2, -8.2, -8.2, -8.2, -8.1, -8.36, -8.72, -8.99, -9.12, -9.39, -9.02, -8.68, -9.16, -8.84, -8.84, -8.84, -8.53, -8.68, -8.79, -9.28, -9.57, -9.61, -9.66, -8.43, -8.4, -8.11, -8.3, -7.84, -7.6, -6.93, -6.44, -5.3, -5.05, -4.51, -3.49, -2.37, -1.25, -0.63, 0.0, 0.0, 0.69, 1.28, 1.76, 1.1, 1.18, 1.63, 1.65, 2.16, 2.4, 3.0, 5.06, 5.37, 5.37, 3.97, 2.26, 0.0, 0.0, 1.67, 1.26, 1.07, 1.73, 5.58, 8.94, 9.39, 9.26, 7.89, 5.69, 0.0, 0.0, 0.0, 2.37, 4.81, 7.13, 7.25, 5.11, 1.44, -2.83, -9.17, -10.12, -6.0, 3.39, 6.4, 7.47, 7.89, 8.06, 8.48, 7.6, 7.67, 6.52, 5.31, 3.68, 3.68, 3.68, 3.2, 3.2, -8.56, -8.56, -8.56, -8.56, -8.2, -8.2, -8.2, -7.85, -8.1, -8.36, -8.61, -8.61, -9.39, -8.76, -8.68, -9.16, -8.84, -8.84, -8.84, -8.53, -8.24, -8.4, -8.37, -9.04, -9.73, -9.61, -9.35, -8.4, -8.14, -8.11, -8.08, -7.66, -7.63, -7.16, -7.16, -6.3, -5.88, -5.14, -3.89, -2.8, -1.73, -1.11, 0.0, 0.62, 1.25, 1.16, 1.59, 1.14, 1.09, 1.1, 1.14, 1.7, 1.23, 2.53, 3.72, 3.97, 1.84, 0.0, 1.32, 1.32, 0.0, 0.89, 0.0, 1.73, 8.77, 8.94, 9.21, 7.44, 4.71, 2.06, 0.0, 0.0, 0.0, 1.02, 3.82, 5.86, 6.0, 4.24, 2.35, 0.0, -10.18, -12.79, 0.0, 7.59, 5.95, 5.72, 6.9, 8.06, 8.06, 7.28, 6.63, 5.31, 5.03, 4.37, 3.4, 2.4, 2.26, 2.26, -8.56, -8.56, -8.56, -8.56, -8.2, -8.2, -8.2, -7.85, -8.1, -8.1, -8.36, -8.61, -9.12, -8.76, -8.76, -8.43, -8.84, -8.84, -8.84, -8.53, -8.24, -7.96, -7.96, -8.4, -9.07, -9.47, -9.47, -9.07, -9.04, -8.37, -7.66, -7.66, -7.66, -7.2, -7.2, -6.52, -5.88, -5.11, -4.05, -2.77, -2.15, -1.1, -0.56, 0.0, 0.56, 1.12, 1.12, 1.14, 0.54, 1.18, 0.57, 0.59, 0.7, 0.96, 0.0, 0.0, 0.0, 0.0, 2.12, 3.0, 0.0, 0.0, 0.0, 4.22, 8.82, 10.14, 7.15, 4.96, 0.0, 0.0, 0.0, 0.0, -1.33, -1.33, 0.0, 0.0, 0.0, 0.73, 2.35, 1.25, 0.0, 0.0, 6.8, 6.45, 4.0, 2.82, 5.06, 6.9, 7.28, 5.69, 5.03, 3.8, 3.6, 3.6, 2.54, 2.54, 1.25, 1.25, -8.56, -8.56, -8.56, -8.56, -8.2, -8.2, -8.2, -8.46, -8.1, -8.1, -8.36, -8.61, -9.39, -9.02, -9.02, -8.43, -8.58, -8.58, -8.28, -8.28, -8.24, -7.96, -7.96, -7.96, -8.4, -8.68, -8.81, -9.47, -8.79, -9.04, -8.11, -7.66, -7.45, -7.0, -6.8, -6.56, -5.73, -5.14, -4.08, -2.93, -2.28, -1.73, -1.12, -0.81, 0.0, 1.69, 1.75, 0.0, 0.0, 0.61, 0.64, 0.0, 0.0, 0.0, 0.0, 0.0, 0.0, 0.0, 4.43, 4.74, 0.0, -1.32, -1.49, 7.6, 9.39, 8.91, 7.81, 6.32, 0.0, -2.83, -2.17, -1.33, -1.16, -3.3, -5.21, -6.0, -4.62, -1.76, 0.0, 0.81, 0.95, 1.2, 3.2, 3.65, 2.58, 2.72, 3.11, 3.91, 4.14, 3.91, 2.54, 2.4, 1.07, 2.4, 1.25, 1.32, 1.14, 1.14, -8.56, -8.56, -8.56, -8.56, -8.56, -8.2, -8.2, -8.46, -8.1, -8.1, -8.1, -8.61, -8.61, -9.02, -9.28, -8.68, -8.12, -8.58, -8.58, -8.28, -8.53, -7.76, -7.96, -7.7, -7.96, -8.4, -8.43, -9.09, -9.07, -8.79, -8.11, -7.66, -7.7, -7.03, -6.36, -6.4, -5.77, -4.51, -4.12, -2.93, -2.53, -1.84, -1.75, -1.81, -0.59, 0.0, 0.0, 0.0, 0.0, 0.0, 4.92, 3.48, 0.0, 0.0, 0.0, 0.0, 0.0, 2.48, 5.6, 0.0, -2.12, -2.82, 0.0, 8.24, 8.24, 8.24, 7.89, 9.13, 6.08, 0.0, -3.6, -1.58, 0.0, 0.0, -4.28, -7.44, -6.7, -5.57, -2.0, 0.0, 0.0, 0.0, 0.86, 2.81, 4.1, 3.51, 3.51, 2.75, 1.45, 1.73, 1.65, 0.89, 0.94, 0.0, 0.0, 0.0, 0.0, 0.0, -8.29, -8.29, -8.56, -8.56, -8.56, -8.2, -8.2, -8.46, -8.1, -8.36, -8.36, -8.1, -8.61, -8.76, -9.02, -8.68, -8.35, -8.35, -8.84, -8.53, -8.53, -7.76, -7.49, -7.96, -7.7, -7.96, -8.43, -8.18, -8.16, -8.14, -8.37, -7.7, -7.7, -7.03, -6.36, -6.4, -5.32, -4.54, -4.12, -3.25, -2.53, -2.53, -2.42, -1.78, -1.84, -3.32, -3.11, -1.2, 0.0, 4.02, 4.02, 3.6, 4.0, 4.92, 0.0, 0.0, 0.0, 3.79, 4.8, 0.0, -3.0, 0.0, 6.01, 7.07, 7.07, 5.69, 6.8, 8.06, 5.69, 1.73, 0.0, 2.26, 4.6, 3.67, 0.89, -4.18, -7.43, -6.24, -5.0, -1.77, -0.7, 0.0, 1.31, 3.25, 4.46, 4.02, 3.99, 2.82, 2.06, 1.32, 0.76, 0.69, 0.0, 0.0, 0.0, 0.0, 0.0, 0.0, -8.29, -8.29, -8.29, -8.56, -8.56, -8.2, -8.2, -8.46, -8.46, -8.36, -8.36, -8.36, -8.36, -9.02, -9.02, -8.68, -8.68, -8.59, -8.59, -8.28, -8.77, -7.98, -7.76, -7.96, -7.7, -7.96, -7.73, -8.2, -9.12, -7.53, -8.14, -8.37, -7.7, -7.48, -6.82, -6.4, -5.8, -4.72, -3.91, -3.61, -3.11, -2.53, -2.42, -2.3, -3.01, -3.97, -3.42, -1.67, 0.0, 0.0, 0.0, 0.0, 2.2, 3.48, 3.48, 3.16, 2.4, 3.79, 4.8, 2.6, 0.0, 4.22, 6.01, 4.46, 4.71, 1.95, 0.0, 0.0, 0.0, 0.0, 1.49, 6.01, 7.27, 3.07, 2.28, 0.0, -5.14, -6.16, -4.88, -1.84, 0.0, 1.6, 2.53, 3.68, 3.73, 3.53, 3.39, 3.53, 2.31, 1.4, 0.0, 0.0, 0.0, 0.0, 0.0, 0.0, 0.0, 0.0, -8.29, -8.29, -8.29, -8.56, -8.56, -8.2, -8.2, -8.46, -8.46, -8.36, -8.36, -8.36, -8.36, -8.36, -9.02, -8.68, -8.68, -8.35, -8.35, -8.28, -8.28, -8.28, -7.98, -7.96, -7.73, -7.73, -7.73, -7.8, -8.11, -8.86, -7.93, -8.4, -8.14, -8.14, -7.48, -6.85, -6.46, -5.17, -4.57, -3.61, -3.07, -2.53, -2.53, -2.42, -2.8, -2.93, -2.77, -1.63, -0.59, -0.56, -0.54, -0.61, 0.0, 0.0, 1.05, 0.88, 2.0, 3.48, 3.79, 3.48, 3.79, 3.97, 4.71, 2.4, 2.54, 1.95, 0.0, -1.84, -2.06, 0.0, 3.32, 5.63, 4.0, 0.0, 0.0, 0.0, -0.86, -1.76, 0.0, 0.0, 1.71, 2.39, 3.25, 3.07, 2.32, 2.3, 2.28, 2.3, 1.54, 0.73, 0.0, 0.0, 0.0, 0.0, 0.0, 0.0, -1.32, -1.32, -8.66, -8.66, -8.29, -8.29, -8.56, -8.56, -8.2, -8.46, -8.46, -8.36, -8.36, -8.61, -8.36, -8.36, -8.76, -8.68, -8.68, -8.68, -8.35, -8.59, -8.28, -8.51, -7.98, -8.47, -7.73, -7.73, -7.73, -7.76, -8.46, -8.2, -8.18, -8.18, -8.18, -7.92, -7.5, -7.53, -6.25, -5.2, -4.57, -3.42, -3.07, -2.93, -2.39, -2.39, -2.77, -2.77, -2.25, -2.25, -1.71, -1.71, -1.16, -1.12, -1.18, 0.0, 0.0, 0.61, 0.63, 1.49, 3.16, 3.35, 5.06, 5.37, 3.4, 2.54, 0.0, 0.0, 0.0, 0.0, 0.0, 0.0, 3.15, 4.4, 2.39, -2.02, -3.36, -0.77, 1.54, 3.02, 3.96, 2.72, 0.81, 0.79, 0.0, 0.0, 0.0, 0.59, 0.58, 0.58, 0.7, 0.0, 0.0, 0.0, 0.0, 0.0, 1.01, 0.0, 0.0, 0.0, -8.66, -8.66, -8.29, -8.29, -8.56, -8.56, -8.2, -8.46, -8.72, -8.36, -8.61, -8.61, -8.61, -8.36, -8.36, -8.76, -8.43, -8.43, -8.12, -8.35, -8.28, -8.28, -7.98, -7.98, -7.96, -7.73, -7.73, -7.76, -8.18, -8.83, -8.83, -8.18, -7.93, -7.55, -7.55, -6.92, -5.86, -5.02, -4.57, -3.91, -3.42, -2.9, -3.07, -2.49, -2.39, -2.25, -2.35, -2.35, -2.35, -2.35, -2.25, -1.73, -1.78, -1.18, 0.0, 0.0, 0.0, 0.55, 1.41, 3.16, 3.72, 6.8, 3.4, 3.4, 0.0, 0.0, 0.0, 0.0, 0.0, 0.0, 1.58, 2.39, 0.0, -0.93, -2.72, 0.0, 3.2, 5.79, 4.81, 2.3, 0.0, -1.58, -1.57, -1.61, -0.81, 0.0, 0.0, 0.0, 0.0, 0.0, -0.84, -0.76, -0.78, 0.69, 1.84, 1.07, 0.0, 0.0, -8.66, -8.66, -8.29, -7.79, -8.56, -8.56, -8.46, -8.46, -8.72, -8.36, -8.61, -8.61, -8.61, -8.36, -8.36, -8.26, -8.43, -8.43, -8.12, -8.35, -8.35, -8.28, -8.28, -7.98, -8.24, -7.73, -7.73, -7.5, -8.18, -8.56, -8.56, -8.16, -7.53, -7.31, -6.68, -6.07, -5.75, -5.05, -4.54, -4.12, -3.61, -3.61, -3.07, -2.49, -2.49, -2.35, -2.35, -2.23, -2.75, -2.75, -2.9, -2.39, -2.19, -1.16, -0.65, 0.0, 0.0, 0.0, 0.63, 2.48, 3.48, 3.48, 0.0, 0.0, 0.0, 0.0, 1.84, 2.06, 0.0, 0.0, 0.0, 0.0, 1.76, 0.89, 0.0, 0.0, 1.83, 3.36, 3.13, 1.39, 0.0, -1.51, -1.77, -2.19, -1.11, -1.01, -1.01, -1.04, -0.69, -0.79, -1.65, -0.84, 0.0, 1.52, 2.18, 1.41, 0.0, 0.0, -8.37, -8.37, -8.18, -7.79, -8.05, -8.56, -8.46, -8.46, -8.72, -8.72, -8.61, -8.61, -8.61, -8.61, -8.36, -8.01, -8.43, -8.43, -8.43, -8.35, -8.35, -8.05, -8.28, -8.28, -7.76, -7.73, -7.73, -7.5, -7.76, -8.43, -8.16, -8.16, -7.76, -7.55, -6.53, -6.16, -5.54, -5.3, -5.09, -4.23, -3.82, -3.11, -2.58, -2.71, -1.84, -2.25, -2.75, -2.87, -2.87, -3.39, -3.39, -2.93, -2.86, -1.84, -1.36, -0.71, -0.62, 0.0, 0.88, 1.55, 2.2, 1.55, 0.0, 0.0, 0.0, 0.0, 0.0, 0.0, 0.0, 0.0, 0.0, 0.0, 2.02, 3.96, 2.39, 0.0, -2.28, -1.9, -1.73, -1.39, 0.0, 0.0, 0.0, 0.0, 0.0, -1.22, -1.09, -0.89, -1.0, -0.94, -0.94, 0.0, 0.0, 1.54, 1.6, 1.4, 0.89, 0.0, -8.37, -8.37, -8.18, -7.79, -8.05, -8.05, -8.84, -8.46, -8.72, -8.72, -8.61, -8.61, -8.61, -8.61, -8.61, -8.01, -8.01, -8.43, -8.43, -8.35, -8.35, -8.35, -8.05, -8.28, -7.76, -8.0, -7.5, -7.5, -7.53, -7.76, -8.16, -7.92, -7.76, -7.53, -6.92, -6.16, -6.04, -5.86, -5.63, -4.8, -3.69, -3.78, -2.83, -3.08, -1.18, -1.69, -2.84, -3.86, -4.05, -4.05, -3.89, -3.94, -3.35, -2.92, -2.18, -1.55, -0.74, 0.0, 0.0, 1.19, 1.55, 0.0, 0.0, 0.0, 0.0, 0.0, 0.0, 0.0, 0.0, 0.0, 0.0, 0.0, 0.0, 2.0, 3.83, 3.25, 0.0, -5.99, -6.66, -4.75, -2.09, 0.0, 0.0, 0.0, 0.0, 0.0, 0.0, 0.0, 0.0, 0.0, 0.0, 0.79, 0.67, 0.78, 0.78, 0.73, 0.69, 0.89, -8.37, -8.37, -7.9, -7.79, -8.05, -8.05, -8.84, -8.46, -8.72, -8.72, -8.61, -8.61, -8.61, -8.61, -8.61, -8.01, -8.01, -8.51, -8.43, -8.43, -8.35, -8.35, -8.05, -8.05, -8.05, -7.54, -7.76, -7.5, -6.85, -7.53, -7.76, -8.18, -7.76, -7.53, -6.92, -6.31, -6.2, -5.54, -5.3, -4.5, -4.13, -4.25, -4.2, -4.12, -3.98, -3.03, -3.99, -5.17, -5.2, -5.2, -5.2, -4.6, -3.8, -3.14, -2.82, -2.26, -1.45, 0.0, 0.0, 0.0, 0.0, 0.0, -1.3, -2.4, -2.4, -1.95, -1.84, -1.84, -1.95, 0.0, 0.0, 0.0, 0.0, 0.0, 3.73, 7.23, 5.38, 0.0, -4.99, -6.76, -4.48, -1.93, 0.0, 0.0, 0.0, 1.02, 1.92, 2.28, 2.52, 2.08, 2.02, 0.8, 0.69, 0.0, 0.0, 0.0, 0.0, 0.69, -8.37, -8.37, -7.9, -8.18, -7.79, -8.05, -8.05, -8.46, -8.46, -8.72, -8.72, -8.36, -8.61, -8.61, -8.36, -8.01, -8.01, -8.51, -8.18, -8.43, -8.12, -8.12, -8.12, -8.05, -8.05, -8.05, -7.32, -7.1, -7.1, -7.1, -7.1, -7.76, -7.76, -7.53, -6.92, -6.7, -5.92, -5.75, -5.26, -4.8, -4.23, -3.95, -4.07, -4.83, -5.78, -6.31, -5.64, -5.64, -5.67, -5.67, -5.23, -4.4, -4.03, -3.14, -2.82, -2.26, -2.35, -0.82, 0.0, 0.0, 0.0, -1.55, -3.2, -2.26, -2.4, -1.84, -1.84, -1.67, -1.84, 0.0, 0.0, 0.0, 0.0, 0.0, 0.0, 5.08, 7.01, 5.28, 0.93, -2.17, -4.46, -1.75, 0.0, 0.0, 1.05, 1.16, 1.28, 2.28, 2.08, 0.97, 0.89, 0.0, 0.0, 0.0, 0.0, 0.0, 0.0, 0.0, -8.09, -8.09, -7.9, -7.9, -7.79, -7.79, -8.05, -8.46, -8.46, -8.46, -8.72, -8.36, -8.36, -8.36, -8.36, -8.36, -8.01, -8.01, -8.51, -8.18, -8.43, -8.12, -8.12, -8.12, -7.82, -7.82, -7.59, -7.1, -7.1, -6.88, -6.88, -6.88, -7.53, -7.53, -7.16, -6.96, -6.33, -5.95, -5.52, -5.05, -4.54, -4.05, -4.6, -4.92, -6.36, -6.4, -5.64, -5.02, -4.63, -4.66, -4.44, -3.81, -3.85, -3.6, -3.09, -3.09, -1.63, -0.89, -0.96, 0.0, -1.3, -1.19, -2.2, -2.4, -2.4, -1.84, -1.95, -1.95, 0.0, 0.0, 0.0, 0.0, -2.28, -1.67, -2.28, -2.02, 0.89, 3.95, 4.76, 4.64, 3.92, 3.19, 2.16, 0.96, 0.96, 0.0, 0.0, 0.0, 0.0, 0.0, 0.0, -0.82, -0.69, -0.73, -0.77, -0.94, -0.94, -0.94, -8.09, -8.09, -7.9, -7.9, -7.79, -7.79, -8.05, -8.56, -8.2, -8.46, -8.46, -8.36, -8.36, -8.36, -8.36, -8.36, -8.01, -8.01, -8.51, -8.18, -8.43, -8.12, -8.12, -8.12, -7.82, -7.82, -7.59, -7.1, -6.43, -6.88, -6.46, -6.9, -6.9, -6.9, -6.92, -6.96, -6.58, -6.2, -5.52, -4.8, -4.54, -4.6, -4.31, -4.31, -5.32, -5.0, -4.76, -3.91, -3.49, -3.35, -3.4, -3.2, -3.4, -3.4, -3.4, -3.4, -2.51, -1.84, -1.03, -1.14, -1.3, -2.4, -2.53, -4.22, -1.84, 0.0, 0.0, 0.0, 0.0, 1.84, 0.0, -1.67, -3.32, -3.49, -5.86, -6.01, -2.1, 0.89, 4.81, 6.8, 6.9, 6.4, 5.35, 3.17, 1.61, 0.0, 0.0, -1.18, -2.33, -2.0, -2.19, -1.93, -1.49, -1.6, -1.6, -1.11, -1.11, -1.11, -8.09, -8.09, -7.9, -7.9, -8.18, -7.79, -8.05, -8.56, -8.46, -8.46, -8.46, -8.72, -8.36, -8.36, -8.36, -8.36, -8.01, -8.01, -8.01, -8.18, -8.43, -8.43, -8.12, -8.12, -8.12, -7.82, -7.59, -7.1, -6.43, -6.46, -6.46, -6.25, -6.25, -6.5, -6.53, -6.31, -6.58, -6.2, -5.75, -5.26, -5.05, -4.54, -4.6, -4.6, -4.6, -4.54, -4.26, -3.72, -3.42, -3.49, -2.89, -3.14, -3.2, -3.2, -3.4, -3.77, -2.82, -2.64, -1.98, -2.32, -2.16, -1.99, -2.4, -2.4, -1.95, 0.0, 0.0, 2.26, 1.84, 2.4, 0.0, -2.06, -4.0, -4.83, -5.46, -4.2, -2.49, 0.0, 3.46, 5.91, 8.39, 9.66, 8.71, 6.14, 3.91, 2.31, 0.83, -1.11, -2.33, -3.77, -2.52, -1.36, -2.18, -2.44, -2.69, -1.4, -1.4, -1.4, -8.09, -8.09, -7.9, -7.9, -7.9, -7.79, -7.79, -8.56, -8.46, -8.46, -8.46, -8.46, -8.36, -8.36, -8.36, -8.36, -8.01, -8.01, -8.01, -8.01, -8.18, -8.43, -8.12, -8.12, -8.12, -7.82, -7.59, -7.1, -6.88, -6.43, -6.46, -6.25, -6.5, -6.27, -6.29, -6.56, -6.58, -6.58, -5.92, -5.26, -5.05, -5.26, -5.05, -5.05, -5.05, -4.8, -5.0, -4.26, -4.26, -4.12, -3.49, -3.37, -3.4, -3.77, -3.2, -3.97, -3.97, -3.2, -3.45, -2.32, -2.16, -2.16, -2.76, -1.7, -0.82, 0.0, 0.0, 0.0, 0.0, 0.0, -1.95, -3.8, -4.0, -4.2, -3.49, -1.84, 0.0, 0.0, 1.98, 4.81, 7.32, 8.9, 7.89, 6.69, 5.64, 4.24, 2.1, 0.0, -2.19, -2.82, -3.3, -2.2, -2.2, -2.26, -2.4, 1.84, 1.84, 1.84, -8.09, -8.09, -7.9, -7.9, -8.18, -7.79, -7.79, -8.56, -8.56, -8.46, -8.46, -8.46, -8.36, -8.36, -8.36, -8.36, -8.36, -8.01, -8.01, -8.01, -8.18, -8.43, -8.43, -8.12, -8.12, -8.12, -7.59, -7.36, -6.88, -6.43, -6.46, -6.25, -6.5, -6.08, -6.35, -6.4, -6.84, -6.58, -5.92, -5.26, -5.52, -5.05, -5.05, -5.05, -5.05, -4.8, -5.0, -4.57, -5.0, -5.0, -4.6, -4.63, -4.03, -3.91, -3.97, -3.97, -3.97, -3.68, -3.45, -3.45, -2.32, -2.16, -1.99, -1.7, 0.0, 0.0, 0.0, -1.95, -2.06, -3.6, -3.8, -3.8, -3.8, -1.75, -1.84, 0.0, 0.0, 0.0, 2.52, 4.72, 5.99, 5.79, 6.97, 7.69, 6.34, 4.31, 2.18, 0.0, 0.0, -4.6, -3.17, -2.29, -2.29, -1.72, 0.0, 6.23, 6.23, 6.23, -8.09, -8.09, -8.37, -7.9, -7.9, -8.18, -8.05, -8.56, -8.56, -8.2, -8.46, -8.46, -8.1, -8.36, -8.36, -8.36, -8.36, -8.01, -8.01, -7.77, -7.77, -8.18, -8.43, -8.12, -8.12, -8.12, -7.59, -7.36, -7.13, -7.13, -6.46, -6.25, -6.04, -6.08, -5.86, -5.92, -6.7, -6.45, -6.2, -5.52, -4.84, -5.05, -5.05, -5.05, -5.52, -5.26, -5.26, -4.57, -4.8, -4.8, -4.8, -5.04, -4.66, -4.28, -4.42, -3.97, -3.72, -4.19, -3.45, -3.76, -3.76, -2.99, -2.76, -1.83, -1.19, -2.54, -1.84, -1.84, -1.95, -1.58, -2.17, -2.06, -2.17, -1.84, -1.84, -1.93, 0.0, 0.0, 2.95, 3.92, 3.68, 4.51, 7.04, 9.43, 8.09, 5.02, 2.1, 0.0, -2.6, -3.7, -3.72, -2.66, -1.94, -1.03, 5.36, 7.15, 7.15, 7.15, -8.09, -8.09, -8.37, -7.9, -7.9, -8.18, -8.05, -8.56, -8.56, -8.46, -8.46, -8.46, -8.72, -8.36, -8.36, -8.36, -8.36, -8.36, -8.01, -8.01, -8.01, -8.18, -8.43, -8.43, -8.12, -7.88, -7.88, -7.36, -7.13, -6.9, -6.46, -6.46, -6.04, -6.08, -5.86, -6.21, -6.53, -6.29, -6.29, -5.54, -5.32, -5.1, -5.32, -5.32, -5.05, -5.52, -5.26, -5.26, -5.26, -5.26, -5.04, -5.06, -5.06, -5.09, -4.22, -4.56, -4.16, -3.72, -3.91, -3.22, -3.22, -2.99, -2.76, -1.83, -2.2, -3.72, -3.0, -1.4, 0.0, 0.0, -1.75, -1.84, -2.28, -1.84, -1.84, -1.84, 0.0, 0.0, 1.69, 2.95, 2.6, 3.34, 6.53, 7.82, 7.11, 4.95, 0.0, -1.07, -1.25, -1.84, -2.88, -3.22, -1.83, 1.84, 6.14, 6.71, 6.71, 6.71, -8.46, -8.46, -8.37, -7.9, -7.9, -8.18, -8.05, -8.56, -8.56, -8.46, -8.46, -8.46, -8.72, -8.36, -8.36, -8.36, -8.36, -8.36, -8.01, -8.01, -8.01, -8.18, -8.43, -8.43, -8.18, -7.88, -7.88, -7.36, -7.13, -7.13, -6.46, -6.72, -6.5, -6.08, -5.86, -6.21, -6.53, -6.09, -6.09, -5.86, -5.09, -4.87, -4.6, -5.1, -5.05, -5.05, -5.26, -5.48, -5.26, -5.26, -5.04, -5.06, -5.32, -5.1, -5.03, -4.67, -4.29, -4.16, -4.29, -3.91, -3.63, -3.63, -3.35, -2.76, -2.53, -3.76, -4.43, -1.63, -1.73, -1.95, -2.06, -1.75, -1.84, -3.65, -1.84, -1.84, 0.0, 0.0, 0.0, 1.62, 2.82, 2.49, 4.54, 4.49, 4.58, 1.4, 0.0, -0.82, -0.88, -1.05, -2.32, -3.0, 0.0, 5.36, 5.73, 6.2, 6.2, 6.2, -8.46, -8.46, -8.01, -7.9, -7.9, -7.9, -7.79, -8.56, -8.56, -8.84, -8.46, -8.72, -8.72, -8.36, -8.36, -8.36, -8.36, -8.36, -8.36, -8.01, -8.01, -8.01, -8.18, -8.18, -8.18, -7.88, -7.88, -7.64, -7.13, -7.13, -6.46, -6.72, -6.76, -6.3, -6.35, -6.21, -6.53, -6.09, -5.86, -5.3, -5.09, -5.09, -4.6, -4.6, -5.1, -5.05, -5.05, -4.8, -5.26, -5.26, -5.04, -5.06, -5.32, -5.36, -5.38, -5.03, -4.67, -4.29, -4.36, -4.29, -3.72, -3.72, -2.98, -2.98, -2.98, -3.35, -4.02, -3.47, -4.74, -3.97, -4.22, -3.8, -4.2, -4.4, -2.39, -1.84, -1.84, 0.0, 0.0, 0.0, 1.62, 1.39, 1.45, 0.97, 0.72, 0.0, 0.0, 0.0, 0.0, 0.0, 1.41, 7.21, 6.07, 4.82, 5.59, 6.88, 6.88, 6.88, -8.46, -8.46, -8.01, -7.9, -7.9, -7.9, -7.79, -8.05, -8.56, -8.84, -8.46, -8.72, -8.72, -8.72, -8.36, -8.36, -8.36, -8.36, -8.36, -8.01, -8.01, -8.01, -8.18, -8.18, -8.18, -8.18, -7.64, -7.64, -7.4, -7.16, -6.72, -6.5, -6.76, -6.57, -6.35, -5.92, -6.53, -5.77, -5.86, -5.3, -5.09, -4.8, -4.6, -4.6, -5.1, -4.84, -4.84, -4.8, -4.8, -5.26, -5.26, -5.29, -5.72, -5.72, -5.72, -5.1, -4.75, -4.67, -4.71, -4.36, -4.07, -3.38, -3.72, -3.22, -3.22, -3.72, -4.74, -4.43, -4.74, -3.97, -4.22, -5.69, -5.1, -6.32, -4.4, -4.2, -2.28, 0.0, 0.0, 0.0, 0.0, 0.0, 0.0, 0.0, 0.0, 0.0, 0.0, 0.0, 0.0, 0.0, 2.2, 7.15, 6.61, 5.16, 7.31, 8.17, 8.17, 8.17, -8.46, -8.46, -8.01, -7.63, -7.9, -7.9, -8.18, -7.79, -8.56, -8.56, -8.46, -8.46, -8.72, -8.72, -8.36, -8.36, -8.36, -8.36, -8.36, -8.61, -8.01, -8.51, -8.51, -8.18, -8.18, -7.93, -7.93, -7.64, -7.4, -7.16, -6.72, -6.76, -6.76, -6.35, -6.35, -5.92, -6.21, -5.77, -5.86, -5.86, -5.09, -4.8, -4.6, -5.1, -5.1, -4.63, -4.84, -4.84, -4.6, -4.8, -5.26, -5.29, -5.72, -6.0, -5.72, -5.72, -5.1, -4.75, -4.75, -4.42, -4.42, -4.07, -3.64, -3.11, -3.64, -3.64, -3.78, -3.38, -1.73, -2.26, -3.4, -6.01, -6.01, -5.69, -6.08, -6.32, -4.96, -4.0, -2.28, -2.28, -1.84, 0.0, 0.0, 0.79, 1.39, 1.4, 0.0, 0.0, 0.0, 0.0, 3.16, 7.01, 6.8, 6.99, 8.22, 8.37, 8.37, 8.37, -8.46, -8.46, -8.01, -7.63, -7.63, -7.9, -8.18, -8.05, -8.56, -8.56, -8.56, -8.46, -8.72, -8.72, -8.72, -8.36, -8.36, -8.36, -8.36, -8.61, -8.26, -8.01, -8.51, -8.51, -7.93, -7.93, -7.93, -7.4, -7.4, -7.16, -6.72, -6.76, -6.76, -6.35, -6.63, -5.92, -6.21, -6.29, -5.86, -5.86, -5.32, -5.1, -5.1, -5.1, -4.84, -4.84, -4.84, -4.84, -4.6, -4.6, -4.84, -5.29, -5.72, -6.35, -6.35, -5.72, -5.44, -5.1, -4.75, -4.75, -4.42, -4.36, -4.07, -3.64, -3.9, -4.36, -4.02, -3.08, -3.2, -1.73, -1.95, -2.06, -2.17, -2.17, -2.17, -6.01, -6.44, -6.32, -5.63, -4.2, -4.0, -1.84, 0.0, 2.63, 3.2, 3.07, 0.85, 0.0, 0.0, 4.47, 5.2, 7.2, 6.7, 7.76, 8.63, 7.81, 7.81, 7.81, -8.46, -8.46, -8.01, -8.01, -7.63, -7.63, -7.9, -7.79, -8.29, -8.29, -8.56, -8.46, -8.46, -8.72, -8.72, -8.36, -8.36, -8.36, -8.36, -8.61, -8.61, -8.26, -8.76, -8.51, -8.25, -7.93, -7.93, -7.69, -7.4, -7.16, -6.5, -6.76, -6.8, -6.35, -6.63, -5.92, -6.21, -6.29, -5.54, -5.86, -5.32, -5.1, -5.1, -4.84, -4.84, -4.84, -4.84, -4.6, -4.6, -4.84, -4.84, -4.84, -5.98, -6.08, -6.35, -6.06, -6.01, -5.44, -5.1, -4.47, -4.75, -4.71, -4.36, -4.36, -3.9, -3.9, -4.02, -4.02, -3.11, -2.4, -1.84, 0.0, 0.0, 0.0, 0.0, 0.0, -4.0, -7.15, -7.15, -5.36, -5.36, -1.75, 0.0, 0.97, 2.39, 2.25, 1.36, 3.79, 3.93, 4.6, 5.59, 6.79, 7.81, 8.15, 8.4, 8.63, 8.63, 8.63, -8.46, -8.46, -8.01, -8.01, -7.9, -7.9, -7.9, -7.54, -8.29, -8.29, -8.56, -8.46, -8.46, -8.72, -8.72, -8.72, -8.36, -8.36, -8.36, -8.36, -8.61, -8.61, -8.26, -8.51, -8.25, -8.25, -7.93, -7.69, -7.44, -7.44, -6.76, -6.53, -6.8, -6.35, -6.4, -5.92, -6.21, -6.29, -5.77, -5.54, -5.54, -5.32, -5.1, -4.84, -4.84, -5.29, -4.84, -4.6, -4.6, -4.6, -4.84, -5.1, -5.56, -5.72, -6.35, -6.35, -6.06, -5.72, -5.1, -5.1, -4.47, -4.75, -4.71, -4.65, -4.65, -4.65, -4.29, -4.29, -3.9, -3.97, -2.4, -2.4, -1.95, 0.0, 0.0, 0.0, -1.67, -5.36, -6.32, -5.36, -5.1, -4.0, -2.97, -1.02, 0.0, 0.76, 0.7, 2.73, 5.29, 7.21, 6.87, 7.06, 7.51, 7.81, 7.81, 8.15, 8.15, 8.15, -8.46, -8.46, -8.46, -8.01, -7.9, -7.9, -7.9, -8.18, -8.29, -8.29, -8.56, -8.56, -8.46, -8.72, -8.72, -8.72, -8.72, -8.36, -8.36, -8.61, -8.61, -8.61, -8.61, -8.01, -8.25, -8.25, -7.69, -7.69, -7.44, -7.19, -6.76, -6.53, -6.8, -6.4, -6.4, -6.21, -5.98, -6.29, -6.29, -5.54, -5.54, -5.32, -5.8, -5.29, -5.52, -5.29, -5.29, -4.6, -4.6, -4.6, -4.84, -4.4, -5.1, -5.72, -6.35, -6.35, -6.06, -6.01, -5.72, -5.38, -5.1, -4.75, -5.06, -4.71, -4.65, -4.65, -4.29, -4.65, -4.58, -4.29, -3.97, -3.97, -2.26, -2.4, -2.54, -4.71, -3.8, -3.8, -5.31, -5.1, -5.36, -3.49, -2.97, -2.13, -1.64, 0.0, 0.0, 2.49, 6.14, 7.6, 7.21, 6.95, 6.64, 7.21, 7.81, 7.81, 7.81, 7.81, -8.46, -8.46, -8.46, -8.01, -7.9, -7.9, -7.9, -8.18, -7.79, -7.79, -8.56, -8.56, -8.46, -8.46, -8.72, -8.46, -8.46, -8.36, -8.36, -8.36, -8.61, -8.61, -8.61, -8.61, -8.25, -7.99, -7.99, -7.69, -7.44, -7.19, -6.76, -6.8, -6.8, -6.4, -6.4, -6.21, -6.21, -6.29, -6.29, -6.04, -6.04, -5.8, -5.8, -5.52, -5.52, -5.52, -5.29, -5.04, -4.6, -4.84, -4.84, -4.4, -4.88, -5.6, -6.0, -6.06, -6.06, -6.01, -5.72, -5.72, -5.38, -5.08, -4.75, -4.71, -4.71, -4.29, -4.29, -4.42, -4.42, -4.16, -4.01, -2.4, 0.0, 0.0, -1.84, -1.95, -2.06, -2.06, -2.17, -4.0, -3.32, -3.49, -2.97, -3.11, -2.61, -1.51, -0.77, 1.54, 8.24, 6.01, 5.21, 5.21, 6.4, 6.95, 7.21, 7.81, 7.81, 7.81, -8.46, -8.46, -8.46, -8.01, -7.63, -7.9, -7.9, -7.9, -7.79, -7.79, -8.05, -8.05, -8.84, -8.46, -8.46, -8.46, -8.46, -8.1, -8.36, -8.36, -8.36, -8.61, -8.61, -8.36, -8.25, -7.99, -7.99, -7.73, -7.44, -7.19, -6.76, -6.8, -6.84, -6.4, -6.7, -6.21, -6.21, -6.29, -6.29, -6.29, -6.04, -6.04, -6.04, -5.52, -5.52, -5.52, -5.29, -5.29, -4.84, -4.84, -4.63, -4.88, -4.88, -5.6, -6.0, -5.72, -6.34, -5.72, -5.72, -5.44, -5.71, -5.1, -5.08, -5.05, -5.0, -5.0, -4.56, -4.95, -4.68, -4.42, -3.33, -1.84, 0.0, 0.0, 0.0, 0.0, 0.0, 0.0, 0.0, -1.75, -3.32, -2.97, -3.7, -3.11, -2.61, -1.55, 0.0, 0.0, 8.8, 6.95, 4.2, 4.98, 5.46, 6.18, 7.13, 7.28, 7.28, 7.28, -8.46, -8.46, -8.3, -8.3, -8.3, -7.9, -7.9, -7.9, -7.9, -7.79, -7.79, -8.05, -8.31, -8.46, -8.46, -8.46, -8.46, -8.46, -8.1, -8.36, -8.36, -8.36, -8.36, -8.36, -8.58, -7.99, -7.99, -7.73, -7.73, -7.19, -7.04, -6.8, -6.84, -6.4, -6.7, -5.98, -5.98, -6.29, -6.29, -6.04, -6.04, -6.04, -5.75, -5.52, -5.52, -5.52, -5.52, -5.29, -4.84, -4.84, -4.63, -4.88, -4.88, -5.6, -5.72, -5.72, -6.01, -5.72, -5.72, -5.71, -5.71, -5.41, -5.08, -5.37, -5.05, -5.0, -5.0, -5.24, -4.68, -4.42, -3.72, -1.84, -1.05, 0.0, 0.0, 0.0, 0.0, 0.0, 0.0, -1.67, -3.32, -2.83, -3.7, -2.97, -2.71, -1.54, 0.0, 0.0, 0.0, 6.64, 6.64, 6.14, 5.63, 5.89, 6.32, 7.28, 7.28, 7.28, -8.46, -8.46, -8.3, -8.3, -8.3, -7.9, -7.9, -7.9, -7.9, -7.79, -7.79, -8.05, -8.31, -8.46, -8.46, -8.46, -8.46, -8.46, -8.1, -8.36, -8.36, -8.36, -8.36, -8.36, -8.58, -7.99, -7.99, -7.73, -7.73, -7.19, -7.04, -6.8, -6.84, -6.4, -6.7, -5.98, -5.98, -6.29, -6.29, -6.04, -6.04, -6.04, -5.75, -5.52, -5.52, -5.52, -5.52, -5.29, -4.84, -4.84, -4.63, -4.88, -4.88, -5.6, -5.72, -5.72, -6.01, -5.72, -5.72, -5.71, -5.71, -5.41, -5.08, -5.37, -5.05, -5.0, -5.0, -5.24, -4.68, -4.42, -3.72, -1.84, -1.05, 0.0, 0.0, 0.0, 0.0, 0.0, 0.0, -1.67, -3.32, -2.83, -3.52, -3.3, -2.71, -1.7, 0.0, 0.79, 0.98, 1.22, 3.65, 9.21, 8.4, 7.13, 6.64, 7.64, 7.64, 7.64]}]